Time,TemperatureF,DewpointF,PressureIn,WindDirection,WindDirectionDegrees,WindSpeedMPH,WindSpeedGustMPH,Humidity,HourlyPrecipIn,Conditions,Clouds,dailyrainin,SolarRadiationWatts/m^2,SoftwareType,DateUTC
2013-05-14 00:02:00,55.8,40.4,30.05,SSE,164,1.1,3.3,56,0.00,,,0.00,0.00,VWS V14.01,2013-05-14 05:02:00,
2013-05-14 00:03:00,55.8,40.4,30.05,SSE,166,3.3,6.6,56,0.00,,,0.00,0.00,VWS V14.01,2013-05-14 05:03:00,
2013-05-14 00:04:00,55.7,40.3,30.06,SSE,166,2.2,3.3,56,0.00,,,0.00,0.00,VWS V14.01,2013-05-14 05:04:00,
2013-05-14 00:05:00,55.6,40.2,30.05,SSE,166,1.1,2.2,56,0.00,,,0.00,0.00,VWS V14.01,2013-05-14 05:05:00,
2013-05-14 00:08:00,55.4,40.0,30.05,SSE,166,2.2,2.2,56,0.00,,,0.00,0.00,VWS V14.01,2013-05-14 05:08:00,
2013-05-14 00:09:00,55.3,40.3,30.05,SSE,166,3.3,3.3,57,0.00,,,0.00,0.00,VWS V14.01,2013-05-14 05:09:00,
2013-05-14 00:10:00,55.2,40.2,30.05,SSE,166,3.3,4.4,57,0.00,,,0.00,0.00,VWS V14.01,2013-05-14 05:10:00,
2013-05-14 00:11:00,55.2,39.8,30.05,SSE,166,1.1,4.4,56,0.00,,,0.00,0.00,VWS V14.01,2013-05-14 05:11:00,
2013-05-14 00:13:00,55.1,40.2,30.05,SSE,166,4.4,4.4,57,0.00,,,0.00,0.00,VWS V14.01,2013-05-14 05:13:00,
2013-05-14 00:14:00,55.1,40.2,30.05,SSE,166,2.2,4.4,57,0.00,,,0.00,0.00,VWS V14.01,2013-05-14 05:14:00,
2013-05-14 00:15:00,55.0,40.1,30.05,SSE,166,2.2,2.2,57,0.00,,,0.00,0.00,VWS V14.01,2013-05-14 05:15:00,
2013-05-14 00:16:00,55.0,40.1,30.05,SSE,166,3.3,4.4,57,0.00,,,0.00,0.00,VWS V14.01,2013-05-14 05:16:00,
2013-05-14 00:18:00,54.9,40.4,30.04,SSE,166,2.2,2.2,58,0.00,,,0.00,0.00,VWS V14.01,2013-05-14 05:18:00,
2013-05-14 00:20:00,54.9,40.4,30.04,SSE,166,4.4,4.4,58,0.00,,,0.00,0.00,VWS V14.01,2013-05-14 05:20:00,
2013-05-14 00:21:00,54.9,40.4,30.05,SSE,166,1.1,2.2,58,0.00,,,0.00,0.00,VWS V14.01,2013-05-14 05:21:00,
2013-05-14 00:22:00,54.8,40.3,30.04,SSE,166,3.3,3.3,58,0.00,,,0.00,0.00,VWS V14.01,2013-05-14 05:22:00,
2013-05-14 00:24:00,54.7,40.2,30.04,SSE,166,0.0,3.3,58,0.00,,,0.00,0.00,VWS V14.01,2013-05-14 05:24:00,
2013-05-14 00:25:00,54.7,40.2,30.04,SSE,166,4.4,4.4,58,0.00,,,0.00,0.00,VWS V14.01,2013-05-14 05:25:00,
2013-05-14 00:26:00,54.7,40.2,30.04,SSE,166,4.4,5.5,58,0.00,,,0.00,0.00,VWS V14.01,2013-05-14 05:26:00,
2013-05-14 00:27:00,54.6,40.6,30.04,SSE,166,3.3,3.3,59,0.00,,,0.00,0.00,VWS V14.01,2013-05-14 05:27:00,
2013-05-14 00:29:00,54.6,40.1,30.04,SSE,165,4.4,4.4,58,0.00,,,0.00,0.00,VWS V14.01,2013-05-14 05:29:00,
2013-05-14 00:30:00,54.6,40.1,30.04,SSE,166,0.0,2.2,58,0.00,,,0.00,0.00,VWS V14.01,2013-05-14 05:30:00,
2013-05-14 00:31:00,54.6,40.6,30.04,SSE,166,3.3,4.4,59,0.00,,,0.00,0.00,VWS V14.01,2013-05-14 05:31:00,
2013-05-14 00:32:00,54.6,40.6,30.04,SSE,166,3.3,4.4,59,0.00,,,0.00,0.00,VWS V14.01,2013-05-14 05:32:00,
2013-05-14 00:33:00,54.6,40.1,30.04,SSE,166,3.3,4.4,58,0.00,,,0.00,0.00,VWS V14.01,2013-05-14 05:33:00,
2013-05-14 00:35:00,54.6,40.6,30.04,SSE,166,2.2,4.4,59,0.00,,,0.00,0.00,VWS V14.01,2013-05-14 05:35:00,
2013-05-14 00:36:00,54.7,40.2,30.04,SSE,164,2.2,5.5,58,0.00,,,0.00,0.00,VWS V14.01,2013-05-14 05:36:00,
2013-05-14 00:37:00,54.8,40.8,30.04,SSE,164,4.4,4.4,59,0.00,,,0.00,0.00,VWS V14.01,2013-05-14 05:37:00,
2013-05-14 00:38:00,54.8,40.8,30.04,SSE,165,3.3,3.3,59,0.00,,,0.00,0.00,VWS V14.01,2013-05-14 05:38:00,
2013-05-14 00:40:00,54.8,40.3,30.03,SSE,165,5.5,8.8,58,0.00,,,0.00,0.00,VWS V14.01,2013-05-14 05:40:00,
2013-05-14 00:42:00,54.9,40.4,30.03,SSE,166,4.4,6.6,58,0.00,,,0.00,0.00,VWS V14.01,2013-05-14 05:42:00,
2013-05-14 00:43:00,54.9,40.9,30.03,SSE,168,2.2,4.4,59,0.00,,,0.00,0.00,VWS V14.01,2013-05-14 05:43:00,
2013-05-14 00:46:00,55.0,40.5,30.03,SSE,168,4.4,4.4,58,0.00,,,0.00,0.00,VWS V14.01,2013-05-14 05:46:00,
2013-05-14 00:47:00,55.0,40.5,30.03,SSE,168,3.3,4.4,58,0.00,,,0.00,0.00,VWS V14.01,2013-05-14 05:47:00,
2013-05-14 00:49:00,55.0,40.5,30.03,SSE,168,2.2,3.3,58,0.00,,,0.00,0.00,VWS V14.01,2013-05-14 05:49:00,
2013-05-14 00:50:00,55.0,40.1,30.03,SSE,163,5.5,6.6,57,0.00,,,0.00,0.00,VWS V14.01,2013-05-14 05:50:00,
2013-05-14 00:52:00,55.0,40.5,30.03,SSE,163,3.3,4.4,58,0.00,,,0.00,0.00,VWS V14.01,2013-05-14 05:52:00,
2013-05-14 00:53:00,55.0,40.5,30.03,SSE,165,7.7,7.7,58,0.00,,,0.00,0.00,VWS V14.01,2013-05-14 05:53:00,
2013-05-14 00:54:00,55.0,40.5,30.03,SSE,164,4.4,6.6,58,0.00,,,0.00,0.00,VWS V14.01,2013-05-14 05:54:00,
2013-05-14 00:56:00,54.9,40.4,30.02,SSE,166,3.3,6.6,58,0.00,,,0.00,0.00,VWS V14.01,2013-05-14 05:56:00,
2013-05-14 00:57:00,54.9,40.4,30.02,SSE,165,3.3,3.3,58,0.00,,,0.00,0.00,VWS V14.01,2013-05-14 05:57:00,
2013-05-14 00:58:00,54.8,40.3,30.02,SSE,165,3.3,4.4,58,0.00,,,0.00,0.00,VWS V14.01,2013-05-14 05:58:00,
2013-05-14 00:59:00,54.8,40.3,30.02,SSE,165,5.5,5.5,58,0.00,,,0.00,0.00,VWS V14.01,2013-05-14 05:59:00,
2013-05-14 01:00:00,54.8,40.3,30.02,SSE,166,2.2,2.2,58,0.00,,,0.00,0.00,VWS V14.01,2013-05-14 06:00:00,
2013-05-14 01:01:00,54.8,40.8,30.02,SSE,164,2.2,6.6,59,0.00,,,0.00,0.00,VWS V14.01,2013-05-14 06:01:00,
2013-05-14 01:03:00,54.8,40.8,30.02,SSE,163,1.1,4.4,59,0.00,,,0.00,0.00,VWS V14.01,2013-05-14 06:03:00,
2013-05-14 01:04:00,54.7,40.7,30.02,SSE,162,3.3,6.6,59,0.00,,,0.00,0.00,VWS V14.01,2013-05-14 06:04:00,
2013-05-14 01:05:00,54.6,40.6,30.02,SSE,168,2.2,4.4,59,0.00,,,0.00,0.00,VWS V14.01,2013-05-14 06:05:00,
2013-05-14 01:07:00,54.6,40.6,30.02,SSE,167,3.3,4.4,59,0.00,,,0.00,0.00,VWS V14.01,2013-05-14 06:07:00,
2013-05-14 01:08:00,54.6,40.6,30.02,South,169,1.1,6.6,59,0.00,,,0.00,0.00,VWS V14.01,2013-05-14 06:08:00,
2013-05-14 01:09:00,54.6,40.6,30.01,South,169,2.2,3.3,59,0.00,,,0.00,0.00,VWS V14.01,2013-05-14 06:09:00,
2013-05-14 01:11:00,54.6,40.6,30.01,SSE,167,3.3,8.8,59,0.00,,,0.00,0.00,VWS V14.01,2013-05-14 06:11:00,
2013-05-14 01:13:00,54.6,40.6,30.01,South,170,6.6,7.7,59,0.00,,,0.00,0.00,VWS V14.01,2013-05-14 06:13:00,
2013-05-14 01:16:00,54.7,40.7,30.01,SSE,157,5.5,14.3,59,0.00,,,0.00,0.00,VWS V14.01,2013-05-14 06:16:00,
2013-05-14 01:17:00,54.7,40.7,30.01,SSE,159,1.1,5.5,59,0.00,,,0.00,0.00,VWS V14.01,2013-05-14 06:17:00,
2013-05-14 01:18:00,54.8,41.2,30.01,SSE,159,1.1,3.3,60,0.00,,,0.00,0.00,VWS V14.01,2013-05-14 06:18:00,
2013-05-14 01:19:00,54.7,41.1,30.01,SSE,159,4.4,5.5,60,0.00,,,0.00,0.00,VWS V14.01,2013-05-14 06:19:00,
2013-05-14 01:22:00,54.7,40.7,30.01,South,183,3.3,4.4,59,0.00,,,0.00,0.00,VWS V14.01,2013-05-14 06:22:00,
2013-05-14 01:23:00,54.7,41.1,30.01,South,178,4.4,8.8,60,0.00,,,0.00,0.00,VWS V14.01,2013-05-14 06:23:00,
2013-05-14 01:24:00,54.7,41.1,30.01,South,177,3.3,4.4,60,0.00,,,0.00,0.00,VWS V14.01,2013-05-14 06:24:00,
2013-05-14 01:27:00,54.8,40.8,30.01,South,181,1.1,1.1,59,0.00,,,0.00,0.00,VWS V14.01,2013-05-14 06:27:00,
2013-05-14 01:29:00,54.7,40.7,30.00,South,174,4.4,6.6,59,0.00,,,0.00,0.00,VWS V14.01,2013-05-14 06:29:00,
2013-05-14 01:30:00,54.8,40.8,30.00,South,174,4.4,5.5,59,0.00,,,0.00,0.00,VWS V14.01,2013-05-14 06:30:00,
2013-05-14 01:34:00,54.8,40.8,30.00,South,171,2.2,3.3,59,0.00,,,0.00,0.00,VWS V14.01,2013-05-14 06:34:00,
2013-05-14 01:35:00,54.7,40.7,30.00,South,175,3.3,5.5,59,0.00,,,0.00,0.00,VWS V14.01,2013-05-14 06:35:00,
2013-05-14 01:36:00,54.8,40.3,30.00,South,177,2.2,7.7,58,0.00,,,0.00,0.00,VWS V14.01,2013-05-14 06:36:00,
2013-05-14 01:39:00,54.8,40.8,30.00,South,177,5.5,6.6,59,0.00,,,0.00,0.00,VWS V14.01,2013-05-14 06:39:00,
2013-05-14 01:40:00,54.8,40.3,30.00,South,174,4.4,6.6,58,0.00,,,0.00,0.00,VWS V14.01,2013-05-14 06:40:00,
2013-05-14 01:41:00,54.8,40.3,30.00,South,183,4.4,6.6,58,0.00,,,0.00,0.00,VWS V14.01,2013-05-14 06:41:00,
2013-05-14 01:42:00,54.8,40.8,30.00,South,170,6.6,6.6,59,0.00,,,0.00,0.00,VWS V14.01,2013-05-14 06:42:00,
2013-05-14 01:45:00,54.8,40.3,30.00,South,170,1.1,6.6,58,0.00,,,0.00,0.00,VWS V14.01,2013-05-14 06:45:00,
2013-05-14 01:46:00,54.8,40.8,30.00,SSE,168,4.4,5.5,59,0.00,,,0.00,0.00,VWS V14.01,2013-05-14 06:46:00,
2013-05-14 01:47:00,54.7,40.7,30.00,South,182,6.6,8.8,59,0.00,,,0.00,0.00,VWS V14.01,2013-05-14 06:47:00,
2013-05-14 01:50:00,54.6,40.6,30.00,SSE,164,4.4,5.5,59,0.00,,,0.00,0.00,VWS V14.01,2013-05-14 06:50:00,
2013-05-14 01:51:00,54.6,40.6,30.00,SSE,161,8.8,8.8,59,0.00,,,0.00,0.00,VWS V14.01,2013-05-14 06:51:00,
2013-05-14 01:52:00,54.5,40.5,30.00,SSE,161,5.5,7.7,59,0.00,,,0.00,0.00,VWS V14.01,2013-05-14 06:52:00,
2013-05-14 01:53:00,54.5,40.5,30.00,SSE,167,5.5,9.9,59,0.00,,,0.00,0.00,VWS V14.01,2013-05-14 06:53:00,
2013-05-14 01:56:00,54.5,40.5,30.00,South,170,3.3,4.4,59,0.00,,,0.00,0.00,VWS V14.01,2013-05-14 06:56:00,
2013-05-14 01:57:00,54.5,40.5,30.00,South,170,3.3,3.3,59,0.00,,,0.00,0.00,VWS V14.01,2013-05-14 06:57:00,
2013-05-14 01:58:00,54.5,40.5,30.00,South,179,8.8,13.2,59,0.00,,,0.00,0.00,VWS V14.01,2013-05-14 06:58:00,
2013-05-14 02:00:00,54.6,40.6,29.99,South,185,6.6,6.6,59,0.00,,,0.00,0.00,VWS V14.01,2013-05-14 07:00:00,
2013-05-14 02:02:00,54.6,40.6,29.99,South,171,5.5,5.5,59,0.00,,,0.00,0.00,VWS V14.01,2013-05-14 07:02:00,
2013-05-14 02:03:00,54.6,40.6,29.99,SSE,168,3.3,6.6,59,0.00,,,0.00,0.00,VWS V14.01,2013-05-14 07:03:00,
2013-05-14 02:07:00,54.6,40.6,29.99,SSE,162,2.2,7.7,59,0.00,,,0.00,0.00,VWS V14.01,2013-05-14 07:07:00,
2013-05-14 02:08:00,54.7,40.2,29.99,SSW,200,6.6,11.0,58,0.00,,,0.00,0.00,VWS V14.01,2013-05-14 07:08:00,
2013-05-14 02:09:00,54.7,40.2,29.99,South,191,3.3,6.6,58,0.00,,,0.00,0.00,VWS V14.01,2013-05-14 07:09:00,
2013-05-14 02:12:00,54.7,40.7,29.99,SSE,162,2.2,7.7,59,0.00,,,0.00,0.00,VWS V14.01,2013-05-14 07:12:00,
2013-05-14 02:14:00,54.7,40.2,29.99,South,180,8.8,8.8,58,0.00,,,0.00,0.00,VWS V14.01,2013-05-14 07:14:00,
2013-05-14 02:19:00,54.8,40.3,29.98,SSE,162,4.4,6.6,58,0.00,,,0.00,0.00,VWS V14.01,2013-05-14 07:19:00,
2013-05-14 02:20:00,54.9,40.4,29.98,South,174,3.3,8.8,58,0.00,,,0.00,0.00,VWS V14.01,2013-05-14 07:20:00,
2013-05-14 02:21:00,54.9,40.4,29.98,South,188,7.7,9.9,58,0.00,,,0.00,0.00,VWS V14.01,2013-05-14 07:21:00,
2013-05-14 02:24:00,55.0,40.5,29.98,South,191,6.6,8.8,58,0.00,,,0.00,0.00,VWS V14.01,2013-05-14 07:24:00,
2013-05-14 02:25:00,55.0,40.5,29.98,South,172,4.4,7.7,58,0.00,,,0.00,0.00,VWS V14.01,2013-05-14 07:25:00,
2013-05-14 02:26:00,55.0,40.5,29.98,South,172,3.3,4.4,58,0.00,,,0.00,0.00,VWS V14.01,2013-05-14 07:26:00,
2013-05-14 02:27:00,55.0,40.5,29.98,SSE,167,4.4,4.4,58,0.00,,,0.00,0.00,VWS V14.01,2013-05-14 07:27:00,
2013-05-14 02:29:00,55.0,40.5,29.98,SSE,166,6.6,6.6,58,0.00,,,0.00,0.00,VWS V14.01,2013-05-14 07:29:00,
2013-05-14 02:31:00,55.0,40.1,29.98,South,183,6.6,8.8,57,0.00,,,0.00,0.00,VWS V14.01,2013-05-14 07:31:00,
2013-05-14 02:32:00,55.0,40.5,29.98,South,188,2.2,6.6,58,0.00,,,0.00,0.00,VWS V14.01,2013-05-14 07:32:00,
2013-05-14 02:34:00,55.0,40.5,29.97,South,178,5.5,12.1,58,0.00,,,0.00,0.00,VWS V14.01,2013-05-14 07:34:00,
2013-05-14 02:36:00,55.0,40.1,29.97,SSW,195,6.6,7.7,57,0.00,,,0.00,0.00,VWS V14.01,2013-05-14 07:36:00,
2013-05-14 02:37:00,55.1,40.2,29.97,South,183,3.3,9.9,57,0.00,,,0.00,0.00,VWS V14.01,2013-05-14 07:37:00,
2013-05-14 02:38:00,55.1,40.2,29.97,South,172,3.3,3.3,57,0.00,,,0.00,0.00,VWS V14.01,2013-05-14 07:38:00,
2013-05-14 02:40:00,55.1,40.2,29.97,SSE,167,5.5,8.8,57,0.00,,,0.00,0.00,VWS V14.01,2013-05-14 07:40:00,
2013-05-14 02:42:00,55.1,40.2,29.97,South,170,6.6,9.9,57,0.00,,,0.00,0.00,VWS V14.01,2013-05-14 07:42:00,
2013-05-14 02:43:00,55.1,40.2,29.97,South,182,13.2,13.2,57,0.00,,,0.00,0.00,VWS V14.01,2013-05-14 07:43:00,
2013-05-14 02:44:00,55.2,40.2,29.97,SSE,155,3.3,8.8,57,0.00,,,0.00,0.00,VWS V14.01,2013-05-14 07:44:00,
2013-05-14 02:47:00,55.2,40.2,29.97,SSE,156,3.3,5.5,57,0.00,,,0.00,0.00,VWS V14.01,2013-05-14 07:47:00,
2013-05-14 02:48:00,55.2,40.2,29.97,ESE,118,2.2,3.3,57,0.00,,,0.00,0.00,VWS V14.01,2013-05-14 07:48:00,
2013-05-14 02:50:00,55.3,40.3,29.97,SSE,156,8.8,9.9,57,0.00,,,0.00,0.00,VWS V14.01,2013-05-14 07:50:00,
2013-05-14 02:53:00,55.3,40.3,29.97,SSE,156,6.6,8.8,57,0.00,,,0.00,0.00,VWS V14.01,2013-05-14 07:53:00,
2013-05-14 02:54:00,55.3,40.3,29.97,South,171,8.8,11.0,57,0.00,,,0.00,0.00,VWS V14.01,2013-05-14 07:54:00,
2013-05-14 02:55:00,55.2,40.2,29.97,South,171,7.7,8.8,57,0.00,,,0.00,0.00,VWS V14.01,2013-05-14 07:55:00,
2013-05-14 02:58:00,55.1,40.2,29.97,SSE,168,3.3,7.7,57,0.00,,,0.00,0.00,VWS V14.01,2013-05-14 07:58:00,
2013-05-14 02:59:00,55.1,40.6,29.97,South,185,7.7,8.8,58,0.00,,,0.00,0.00,VWS V14.01,2013-05-14 07:59:00,
2013-05-14 03:00:00,55.1,40.6,29.97,SE,137,6.6,8.8,58,0.00,,,0.00,0.00,VWS V14.01,2013-05-14 08:00:00,
2013-05-14 03:01:00,55.1,40.2,29.97,SSW,210,6.6,9.9,57,0.00,,,0.00,0.00,VWS V14.01,2013-05-14 08:01:00,
2013-05-14 03:03:00,55.1,40.2,29.97,South,176,6.6,6.6,57,0.00,,,0.00,0.00,VWS V14.01,2013-05-14 08:03:00,
2013-05-14 03:05:00,55.1,40.2,29.97,South,190,2.2,5.5,57,0.00,,,0.00,0.00,VWS V14.01,2013-05-14 08:05:00,
2013-05-14 03:06:00,55.1,40.2,29.97,SSW,201,4.4,5.5,57,0.00,,,0.00,0.00,VWS V14.01,2013-05-14 08:06:00,
2013-05-14 03:09:00,55.0,40.1,29.97,SSE,160,7.7,9.9,57,0.00,,,0.00,0.00,VWS V14.01,2013-05-14 08:09:00,
2013-05-14 03:10:00,55.0,40.1,29.97,South,183,11.0,11.0,57,0.00,,,0.00,0.00,VWS V14.01,2013-05-14 08:10:00,
2013-05-14 03:12:00,54.9,40.4,29.97,South,179,5.5,8.8,58,0.00,,,0.00,0.00,VWS V14.01,2013-05-14 08:12:00,
2013-05-14 03:14:00,54.8,40.3,29.97,SSW,199,6.6,11.0,58,0.00,,,0.00,0.00,VWS V14.01,2013-05-14 08:14:00,
2013-05-14 03:15:00,54.8,40.3,29.97,South,191,6.6,7.7,58,0.00,,,0.00,0.00,VWS V14.01,2013-05-14 08:15:00,
2013-05-14 03:16:00,54.8,40.3,29.97,South,176,4.4,8.8,58,0.00,,,0.00,0.00,VWS V14.01,2013-05-14 08:16:00,
2013-05-14 03:17:00,54.8,40.3,29.97,SE,141,2.2,5.5,58,0.00,,,0.00,0.00,VWS V14.01,2013-05-14 08:17:00,
2013-05-14 03:19:00,54.6,40.1,29.97,South,172,5.5,6.6,58,0.00,,,0.00,0.00,VWS V14.01,2013-05-14 08:19:00,
2013-05-14 03:21:00,54.6,40.1,29.96,SSW,196,5.5,7.7,58,0.00,,,0.00,0.00,VWS V14.01,2013-05-14 08:21:00,
2013-05-14 03:22:00,54.5,40.0,29.96,South,180,7.7,7.7,58,0.00,,,0.00,0.00,VWS V14.01,2013-05-14 08:22:00,
2013-05-14 03:23:00,54.5,40.5,29.96,SSE,154,6.6,7.7,59,0.00,,,0.00,0.00,VWS V14.01,2013-05-14 08:23:00,
2013-05-14 03:25:00,54.4,40.0,29.97,South,181,9.9,9.9,58,0.00,,,0.00,0.00,VWS V14.01,2013-05-14 08:25:00,
2013-05-14 03:27:00,54.4,40.4,29.97,South,191,4.4,7.7,59,0.00,,,0.00,0.00,VWS V14.01,2013-05-14 08:27:00,
2013-05-14 03:29:00,54.3,40.3,29.96,SSE,167,5.5,7.7,59,0.00,,,0.00,0.00,VWS V14.01,2013-05-14 08:29:00,
2013-05-14 03:30:00,54.3,40.3,29.96,SSW,197,6.6,8.8,59,0.00,,,0.00,0.00,VWS V14.01,2013-05-14 08:30:00,
2013-05-14 03:32:00,54.2,40.2,29.96,South,172,7.7,9.9,59,0.00,,,0.00,0.00,VWS V14.01,2013-05-14 08:32:00,
2013-05-14 03:33:00,54.2,40.2,29.96,South,178,6.6,6.6,59,0.00,,,0.00,0.00,VWS V14.01,2013-05-14 08:33:00,
2013-05-14 03:34:00,54.1,40.5,29.96,SSW,206,4.4,7.7,60,0.00,,,0.00,0.00,VWS V14.01,2013-05-14 08:34:00,
2013-05-14 03:35:00,54.1,40.5,29.96,SSW,201,4.4,4.4,60,0.00,,,0.00,0.00,VWS V14.01,2013-05-14 08:35:00,
2013-05-14 03:38:00,54.0,40.4,29.96,South,176,5.5,9.9,60,0.00,,,0.00,0.00,VWS V14.01,2013-05-14 08:38:00,
2013-05-14 03:39:00,54.0,40.4,29.96,SSE,155,3.3,5.5,60,0.00,,,0.00,0.00,VWS V14.01,2013-05-14 08:39:00,
2013-05-14 03:43:00,53.9,40.3,29.96,South,187,8.8,9.9,60,0.00,,,0.00,0.00,VWS V14.01,2013-05-14 08:43:00,
2013-05-14 03:44:00,53.9,40.3,29.96,SSE,163,8.8,8.8,60,0.00,,,0.00,0.00,VWS V14.01,2013-05-14 08:44:00,
2013-05-14 03:48:00,53.7,40.2,29.95,South,180,8.8,9.9,60,0.00,,,0.00,0.00,VWS V14.01,2013-05-14 08:48:00,
2013-05-14 03:49:00,53.7,40.2,29.95,South,187,8.8,8.8,60,0.00,,,0.00,0.00,VWS V14.01,2013-05-14 08:49:00,
2013-05-14 03:50:00,53.7,40.2,29.95,South,190,4.4,6.6,60,0.00,,,0.00,0.00,VWS V14.01,2013-05-14 08:50:00,
2013-05-14 03:54:00,53.7,40.2,29.95,South,170,6.6,6.6,60,0.00,,,0.00,0.00,VWS V14.01,2013-05-14 08:54:00,
2013-05-14 03:56:00,53.6,40.1,29.95,SSW,192,8.8,8.8,60,0.00,,,0.00,0.00,VWS V14.01,2013-05-14 08:56:00,
2013-05-14 03:59:00,53.7,40.2,29.95,SSE,159,6.6,7.7,60,0.00,,,0.00,0.00,VWS V14.01,2013-05-14 08:59:00,
2013-05-14 04:00:00,53.7,40.2,29.95,SW,226,6.6,7.7,60,0.00,,,0.00,0.00,VWS V14.01,2013-05-14 09:00:00,
2013-05-14 04:03:00,53.8,39.8,29.95,SSE,156,4.4,8.8,59,0.00,,,0.00,0.00,VWS V14.01,2013-05-14 09:03:00,
2013-05-14 04:04:00,53.9,39.9,29.95,South,191,5.5,8.8,59,0.00,,,0.00,0.00,VWS V14.01,2013-05-14 09:04:00,
2013-05-14 04:05:00,53.9,39.9,29.95,SSW,195,5.5,7.7,59,0.00,,,0.00,0.00,VWS V14.01,2013-05-14 09:05:00,
2013-05-14 04:06:00,54.0,39.6,29.95,SSE,161,5.5,8.8,58,0.00,,,0.00,0.00,VWS V14.01,2013-05-14 09:06:00,
2013-05-14 04:08:00,54.1,39.7,29.94,SSW,194,7.7,9.9,58,0.00,,,0.00,0.00,VWS V14.01,2013-05-14 09:08:00,
2013-05-14 04:10:00,54.2,39.8,29.94,SSW,201,9.9,14.3,58,0.00,,,0.00,0.00,VWS V14.01,2013-05-14 09:10:00,
2013-05-14 04:11:00,54.2,39.8,29.94,South,174,5.5,12.1,58,0.00,,,0.00,0.00,VWS V14.01,2013-05-14 09:11:00,
2013-05-14 04:13:00,54.4,39.5,29.94,SSE,157,6.6,13.2,57,0.00,,,0.00,0.00,VWS V14.01,2013-05-14 09:13:00,
2013-05-14 04:14:00,54.4,39.5,29.94,South,187,5.5,8.8,57,0.00,,,0.00,0.00,VWS V14.01,2013-05-14 09:14:00,
2013-05-14 04:16:00,54.5,39.6,29.94,South,172,4.4,6.6,57,0.00,,,0.00,0.00,VWS V14.01,2013-05-14 09:16:00,
2013-05-14 04:19:00,54.6,39.7,29.94,South,185,7.7,18.7,57,0.00,,,0.00,0.00,VWS V14.01,2013-05-14 09:19:00,
2013-05-14 04:22:00,54.6,39.7,29.94,SSW,205,6.6,12.1,57,0.00,,,0.00,0.00,VWS V14.01,2013-05-14 09:22:00,
2013-05-14 04:24:00,54.7,39.8,29.94,South,179,11.0,15.4,57,0.00,,,0.00,0.00,VWS V14.01,2013-05-14 09:24:00,
2013-05-14 04:25:00,54.7,39.8,29.94,SSE,157,8.8,11.0,57,0.00,,,0.00,0.00,VWS V14.01,2013-05-14 09:25:00,
2013-05-14 04:27:00,54.8,40.3,29.94,SSE,166,7.7,8.8,58,0.00,,,0.00,0.00,VWS V14.01,2013-05-14 09:27:00,
2013-05-14 04:30:00,54.8,39.9,29.93,SSW,200,7.7,8.8,57,0.00,,,0.00,0.00,VWS V14.01,2013-05-14 09:30:00,
2013-05-14 04:31:00,54.8,39.9,29.93,SSE,166,4.4,12.1,57,0.00,,,0.00,0.00,VWS V14.01,2013-05-14 09:31:00,
2013-05-14 04:32:00,54.8,40.3,29.93,South,185,13.2,13.2,58,0.00,,,0.00,0.00,VWS V14.01,2013-05-14 09:32:00,
2013-05-14 04:34:00,54.8,39.9,29.93,South,178,5.5,7.7,57,0.00,,,0.00,0.00,VWS V14.01,2013-05-14 09:34:00,
2013-05-14 04:35:00,54.8,39.9,29.93,SSE,163,6.6,13.2,57,0.00,,,0.00,0.00,VWS V14.01,2013-05-14 09:35:00,
2013-05-14 04:36:00,54.8,39.9,29.93,South,174,12.1,12.1,57,0.00,,,0.00,0.00,VWS V14.01,2013-05-14 09:36:00,
2013-05-14 04:38:00,54.8,39.9,29.93,South,191,8.8,16.5,57,0.00,,,0.00,0.00,VWS V14.01,2013-05-14 09:38:00,
2013-05-14 04:39:00,54.8,39.9,29.93,SSW,199,7.7,12.1,57,0.00,,,0.00,0.00,VWS V14.01,2013-05-14 09:39:00,
2013-05-14 04:40:00,54.8,39.9,29.93,SSE,168,2.2,7.7,57,0.00,,,0.00,0.00,VWS V14.01,2013-05-14 09:40:00,
2013-05-14 04:41:00,54.8,40.3,29.92,South,183,5.5,12.1,58,0.00,,,0.00,0.00,VWS V14.01,2013-05-14 09:41:00,
2013-05-14 04:42:00,54.8,40.3,29.92,South,189,4.4,12.1,58,0.00,,,0.00,0.00,VWS V14.01,2013-05-14 09:42:00,
2013-05-14 04:44:00,54.8,40.8,29.92,SSE,166,5.5,6.6,59,0.00,,,0.00,0.00,VWS V14.01,2013-05-14 09:44:00,
2013-05-14 04:46:00,54.8,40.8,29.92,South,180,13.2,13.2,59,0.00,,,0.00,0.00,VWS V14.01,2013-05-14 09:46:00,
2013-05-14 04:47:00,54.8,39.9,29.92,SSE,160,4.4,8.8,57,0.00,,,0.00,0.00,VWS V14.01,2013-05-14 09:47:00,
2013-05-14 04:49:00,54.8,40.3,29.92,South,174,12.1,12.1,58,0.00,,,0.00,0.00,VWS V14.01,2013-05-14 09:49:00,
2013-05-14 04:50:00,54.9,40.0,29.92,SSE,166,5.5,11.0,57,0.00,,,0.00,0.00,VWS V14.01,2013-05-14 09:50:00,
2013-05-14 04:51:00,54.8,40.3,29.92,South,177,8.8,8.8,58,0.00,,,0.00,0.00,VWS V14.01,2013-05-14 09:51:00,
2013-05-14 04:52:00,54.8,40.3,29.92,SSW,199,6.6,6.6,58,0.00,,,0.00,0.00,VWS V14.01,2013-05-14 09:52:00,
2013-05-14 04:53:00,54.8,40.3,29.92,East,89,3.3,9.9,58,0.00,,,0.00,0.00,VWS V14.01,2013-05-14 09:53:00,
2013-05-14 04:54:00,54.8,40.3,29.92,SSE,160,12.1,17.6,58,0.00,,,0.00,0.00,VWS V14.01,2013-05-14 09:54:00,
2013-05-14 04:55:00,54.8,41.2,29.92,South,186,4.4,12.1,60,0.00,,,0.00,0.00,VWS V14.01,2013-05-14 09:55:00,
2013-05-14 04:57:00,54.7,40.2,29.92,South,181,11.0,11.0,58,0.00,,,0.00,0.00,VWS V14.01,2013-05-14 09:57:00,
2013-05-14 04:58:00,54.7,40.2,29.92,South,181,5.5,17.6,58,0.00,,,0.00,0.00,VWS V14.01,2013-05-14 09:58:00,
2013-05-14 05:00:00,54.7,40.7,29.92,SSW,196,7.7,13.2,59,0.00,,,0.00,0.00,VWS V14.01,2013-05-14 10:00:00,
2013-05-14 05:01:00,54.7,40.7,29.92,SSE,147,6.6,15.4,59,0.00,,,0.00,0.00,VWS V14.01,2013-05-14 10:01:00,
2013-05-14 05:02:00,54.6,40.6,29.92,SSW,208,7.7,11.0,59,0.00,,,0.00,0.00,VWS V14.01,2013-05-14 10:02:00,
2013-05-14 05:03:00,54.6,40.6,29.92,South,170,2.2,11.0,59,0.00,,,0.00,0.00,VWS V14.01,2013-05-14 10:03:00,
2013-05-14 05:04:00,54.7,40.2,29.92,South,189,9.9,11.0,58,0.00,,,0.00,0.00,VWS V14.01,2013-05-14 10:04:00,
2013-05-14 05:05:00,54.7,40.7,29.92,South,183,13.2,13.2,59,0.00,,,0.00,0.00,VWS V14.01,2013-05-14 10:05:00,
2013-05-14 05:06:00,54.7,40.7,29.92,SSW,200,9.9,9.9,59,0.00,,,0.00,0.00,VWS V14.01,2013-05-14 10:06:00,
2013-05-14 05:07:00,54.7,40.7,29.92,SW,222,6.6,14.3,59,0.00,,,0.00,0.00,VWS V14.01,2013-05-14 10:07:00,
2013-05-14 05:08:00,54.7,40.7,29.92,SW,224,13.2,13.2,59,0.00,,,0.00,0.00,VWS V14.01,2013-05-14 10:08:00,
2013-05-14 05:10:00,54.7,40.2,29.92,South,173,4.4,8.8,58,0.00,,,0.00,0.00,VWS V14.01,2013-05-14 10:10:00,
2013-05-14 05:12:00,54.7,40.7,29.92,SSE,160,5.5,11.0,59,0.00,,,0.00,0.00,VWS V14.01,2013-05-14 10:12:00,
2013-05-14 05:13:00,54.6,40.6,29.92,South,187,13.2,16.5,59,0.00,,,0.00,0.00,VWS V14.01,2013-05-14 10:13:00,
2013-05-14 05:15:00,54.6,40.6,29.92,SSW,210,4.4,13.2,59,0.00,,,0.00,0.00,VWS V14.01,2013-05-14 10:15:00,
2013-05-14 05:18:00,54.7,41.1,29.91,South,185,9.9,14.3,60,0.00,,,0.00,0.00,VWS V14.01,2013-05-14 10:18:00,
2013-05-14 05:19:00,54.7,41.1,29.91,South,183,7.7,16.5,60,0.00,,,0.00,0.00,VWS V14.01,2013-05-14 10:19:00,
2013-05-14 05:21:00,54.7,40.7,29.91,SSW,196,5.5,8.8,59,0.00,,,0.00,0.00,VWS V14.01,2013-05-14 10:21:00,
2013-05-14 05:23:00,54.7,40.7,29.91,SSE,156,4.4,11.0,59,0.00,,,0.00,0.00,VWS V14.01,2013-05-14 10:23:00,
2013-05-14 05:24:00,54.7,40.7,29.91,South,188,5.5,13.2,59,0.00,,,0.00,0.00,VWS V14.01,2013-05-14 10:24:00,
2013-05-14 05:25:00,54.7,40.7,29.91,SE,145,11.0,13.2,59,0.00,,,0.00,0.00,VWS V14.01,2013-05-14 10:25:00,
2013-05-14 05:26:00,54.8,40.8,29.91,South,183,8.8,8.8,59,0.00,,,0.00,0.00,VWS V14.01,2013-05-14 10:26:00,
2013-05-14 05:28:00,54.8,40.8,29.91,South,185,7.7,11.0,59,0.00,,,0.00,0.00,VWS V14.01,2013-05-14 10:28:00,
2013-05-14 05:29:00,54.7,40.7,29.91,South,189,7.7,11.0,59,0.00,,,0.00,0.00,VWS V14.01,2013-05-14 10:29:00,
2013-05-14 05:30:00,54.7,41.1,29.91,SSW,202,7.7,7.7,60,0.00,,,0.00,0.00,VWS V14.01,2013-05-14 10:30:00,
2013-05-14 05:33:00,54.5,40.9,29.91,South,189,2.2,15.4,60,0.00,,,0.00,0.00,VWS V14.01,2013-05-14 10:33:00,
2013-05-14 05:34:00,54.5,40.9,29.91,South,183,13.2,13.2,60,0.00,,,0.00,0.00,VWS V14.01,2013-05-14 10:34:00,
2013-05-14 05:35:00,54.5,40.9,29.91,South,174,6.6,6.6,60,0.00,,,0.00,0.00,VWS V14.01,2013-05-14 10:35:00,
2013-05-14 05:37:00,54.5,40.9,29.91,South,177,5.5,5.5,60,0.00,,,0.00,0.00,VWS V14.01,2013-05-14 10:37:00,
2013-05-14 05:38:00,54.5,40.9,29.91,SSE,161,9.9,13.2,60,0.00,,,0.00,5.00,VWS V14.01,2013-05-14 10:38:00,
2013-05-14 05:39:00,54.6,41.0,29.91,SSE,168,12.1,12.1,60,0.00,,,0.00,5.00,VWS V14.01,2013-05-14 10:39:00,
2013-05-14 05:40:00,54.6,41.4,29.91,SSE,161,8.8,16.5,61,0.00,,,0.00,5.00,VWS V14.01,2013-05-14 10:40:00,
2013-05-14 05:42:00,54.6,41.0,29.90,SSW,208,7.7,12.1,60,0.00,,,0.00,7.00,VWS V14.01,2013-05-14 10:42:00,
2013-05-14 05:43:00,54.7,41.1,29.91,South,186,9.9,17.6,60,0.00,,,0.00,7.00,VWS V14.01,2013-05-14 10:43:00,
2013-05-14 05:44:00,54.7,41.1,29.91,South,174,3.3,3.3,60,0.00,,,0.00,9.00,VWS V14.01,2013-05-14 10:44:00,
2013-05-14 05:45:00,54.7,41.5,29.91,SSW,201,8.8,15.4,61,0.00,,,0.00,9.00,VWS V14.01,2013-05-14 10:45:00,
2013-05-14 05:47:00,54.7,42.0,29.91,South,178,16.5,16.5,62,0.00,,,0.00,11.00,VWS V14.01,2013-05-14 10:47:00,
2013-05-14 05:48:00,54.8,41.2,29.91,South,180,12.1,12.1,60,0.00,,,0.00,11.00,VWS V14.01,2013-05-14 10:48:00,
2013-05-14 05:49:00,54.8,41.6,29.90,South,189,15.4,15.4,61,0.00,,,0.00,12.00,VWS V14.01,2013-05-14 10:49:00,
2013-05-14 05:51:00,54.9,41.7,29.90,South,187,9.9,16.5,61,0.00,,,0.00,14.00,VWS V14.01,2013-05-14 10:51:00,
2013-05-14 05:52:00,55.0,41.4,29.90,SSE,149,4.4,9.9,60,0.00,,,0.00,14.00,VWS V14.01,2013-05-14 10:52:00,
2013-05-14 05:53:00,55.0,41.4,29.90,South,191,7.7,12.1,60,0.00,,,0.00,14.00,VWS V14.01,2013-05-14 10:53:00,
2013-05-14 05:54:00,55.0,41.4,29.90,SW,217,9.9,12.1,60,0.00,,,0.00,16.00,VWS V14.01,2013-05-14 10:54:00,
2013-05-14 05:55:00,55.0,41.4,29.90,South,182,11.0,14.3,60,0.00,,,0.00,16.00,VWS V14.01,2013-05-14 10:55:00,
2013-05-14 05:56:00,55.0,41.8,29.90,South,185,2.2,6.6,61,0.00,,,0.00,18.00,VWS V14.01,2013-05-14 10:56:00,
2013-05-14 05:57:00,55.1,41.9,29.90,SSE,155,5.5,5.5,61,0.00,,,0.00,19.00,VWS V14.01,2013-05-14 10:57:00,
2013-05-14 05:59:00,55.1,42.3,29.90,South,189,12.1,17.6,62,0.00,,,0.00,21.00,VWS V14.01,2013-05-14 10:59:00,
2013-05-14 06:00:00,55.1,42.3,29.90,SSW,197,5.5,8.8,62,0.00,,,0.00,21.00,VWS V14.01,2013-05-14 11:00:00,
2013-05-14 06:02:00,55.1,42.3,29.90,SSW,194,3.3,8.8,62,0.00,,,0.00,25.00,VWS V14.01,2013-05-14 11:02:00,
2013-05-14 06:03:00,55.1,42.3,29.90,SW,217,9.9,12.1,62,0.00,,,0.00,26.00,VWS V14.01,2013-05-14 11:03:00,
2013-05-14 06:04:00,55.1,41.9,29.90,SSW,197,12.1,15.4,61,0.00,,,0.00,32.00,VWS V14.01,2013-05-14 11:04:00,
2013-05-14 06:05:00,55.1,42.3,29.90,SSE,165,12.1,12.1,62,0.00,,,0.00,32.00,VWS V14.01,2013-05-14 11:05:00,
2013-05-14 06:08:00,55.4,42.2,29.90,SSE,168,8.8,12.1,61,0.00,,,0.00,42.00,VWS V14.01,2013-05-14 11:08:00,
2013-05-14 06:09:00,55.4,42.6,29.90,SSW,193,9.9,12.1,62,0.00,,,0.00,46.00,VWS V14.01,2013-05-14 11:09:00,
2013-05-14 06:10:00,55.5,42.3,29.90,SSW,199,8.8,12.1,61,0.00,,,0.00,47.00,VWS V14.01,2013-05-14 11:10:00,
2013-05-14 06:11:00,55.5,42.7,29.90,South,172,9.9,14.3,62,0.00,,,0.00,49.00,VWS V14.01,2013-05-14 11:11:00,
2013-05-14 06:12:00,55.5,42.7,29.90,South,189,7.7,13.2,62,0.00,,,0.00,51.00,VWS V14.01,2013-05-14 11:12:00,
2013-05-14 06:13:00,55.6,42.4,29.90,South,173,12.1,17.6,61,0.00,,,0.00,53.00,VWS V14.01,2013-05-14 11:13:00,
2013-05-14 06:15:00,55.7,42.9,29.90,South,177,6.6,11.0,62,0.00,,,0.00,39.00,VWS V14.01,2013-05-14 11:15:00,
2013-05-14 06:16:00,55.7,42.5,29.90,South,174,12.1,14.3,61,0.00,,,0.00,35.00,VWS V14.01,2013-05-14 11:16:00,
2013-05-14 06:18:00,55.8,43.0,29.90,South,185,16.5,18.7,62,0.00,,,0.00,47.00,VWS V14.01,2013-05-14 11:18:00,
2013-05-14 06:19:00,55.8,43.0,29.90,South,183,15.4,16.5,62,0.00,,,0.00,69.00,VWS V14.01,2013-05-14 11:19:00,
2013-05-14 06:20:00,55.9,43.1,29.89,SSE,168,7.7,8.8,62,0.00,,,0.00,72.00,VWS V14.01,2013-05-14 11:20:00,
2013-05-14 06:21:00,55.9,43.1,29.90,South,184,4.4,8.8,62,0.00,,,0.00,76.00,VWS V14.01,2013-05-14 11:21:00,
2013-05-14 06:22:00,55.9,43.1,29.90,South,182,11.0,14.3,62,0.00,,,0.00,76.00,VWS V14.01,2013-05-14 11:22:00,
2013-05-14 06:23:00,55.9,43.1,29.90,SW,231,8.8,13.2,62,0.00,,,0.00,83.00,VWS V14.01,2013-05-14 11:23:00,
2013-05-14 06:24:00,55.9,43.1,29.90,SSE,164,3.3,13.2,62,0.00,,,0.00,84.00,VWS V14.01,2013-05-14 11:24:00,
2013-05-14 06:25:00,56.0,43.2,29.89,SSW,195,7.7,12.1,62,0.00,,,0.00,88.00,VWS V14.01,2013-05-14 11:25:00,
2013-05-14 06:26:00,55.9,43.1,29.89,South,181,11.0,13.2,62,0.00,,,0.00,90.00,VWS V14.01,2013-05-14 11:26:00,
2013-05-14 06:27:00,56.0,43.2,29.90,SSE,167,5.5,11.0,62,0.00,,,0.00,93.00,VWS V14.01,2013-05-14 11:27:00,
2013-05-14 06:29:00,56.0,43.2,29.89,SSE,167,4.4,7.7,62,0.00,,,0.00,98.00,VWS V14.01,2013-05-14 11:29:00,
2013-05-14 06:31:00,56.1,43.3,29.89,South,172,13.2,15.4,62,0.00,,,0.00,105.00,VWS V14.01,2013-05-14 11:31:00,
2013-05-14 06:32:00,56.1,43.7,29.89,SW,215,3.3,15.4,63,0.00,,,0.00,109.00,VWS V14.01,2013-05-14 11:32:00,
2013-05-14 06:34:00,56.2,43.4,29.89,South,170,11.0,11.0,62,0.00,,,0.00,114.00,VWS V14.01,2013-05-14 11:34:00,
2013-05-14 06:37:00,56.3,43.5,29.89,SSW,192,6.6,8.8,62,0.00,,,0.00,109.00,VWS V14.01,2013-05-14 11:37:00,
2013-05-14 06:39:00,56.5,43.7,29.89,SSW,195,11.0,14.3,62,0.00,,,0.00,127.00,VWS V14.01,2013-05-14 11:39:00,
2013-05-14 06:40:00,56.6,43.8,29.89,SSW,199,4.4,5.5,62,0.00,,,0.00,134.00,VWS V14.01,2013-05-14 11:40:00,
2013-05-14 06:42:00,56.6,43.8,29.89,South,174,8.8,9.9,62,0.00,,,0.00,135.00,VWS V14.01,2013-05-14 11:42:00,
2013-05-14 06:44:00,56.7,43.8,29.89,SSW,198,12.1,14.3,62,0.00,,,0.00,144.00,VWS V14.01,2013-05-14 11:44:00,
2013-05-14 06:45:00,56.7,43.8,29.89,SSW,204,5.5,14.3,62,0.00,,,0.00,146.00,VWS V14.01,2013-05-14 11:45:00,
2013-05-14 06:46:00,56.8,44.3,29.89,SSW,198,6.6,11.0,63,0.00,,,0.00,148.00,VWS V14.01,2013-05-14 11:46:00,
2013-05-14 06:48:00,56.9,44.0,29.89,SSW,213,9.9,11.0,62,0.00,,,0.00,153.00,VWS V14.01,2013-05-14 11:48:00,
2013-05-14 06:50:00,56.9,44.0,29.88,SSW,212,8.8,17.6,62,0.00,,,0.00,158.00,VWS V14.01,2013-05-14 11:50:00,
2013-05-14 06:51:00,57.1,44.2,29.88,SSW,195,6.6,14.3,62,0.00,,,0.00,163.00,VWS V14.01,2013-05-14 11:51:00,
2013-05-14 06:52:00,57.2,44.3,29.88,South,184,7.7,16.5,62,0.00,,,0.00,156.00,VWS V14.01,2013-05-14 11:52:00,
2013-05-14 06:54:00,57.3,44.4,29.89,South,189,4.4,12.1,62,0.00,,,0.00,158.00,VWS V14.01,2013-05-14 11:54:00,
2013-05-14 06:56:00,57.5,45.0,29.88,South,177,7.7,12.1,63,0.00,,,0.00,178.00,VWS V14.01,2013-05-14 11:56:00,
2013-05-14 06:57:00,57.5,44.6,29.88,SE,136,4.4,16.5,62,0.00,,,0.00,179.00,VWS V14.01,2013-05-14 11:57:00,
2013-05-14 06:58:00,57.6,44.7,29.88,SSW,193,8.8,13.2,62,0.00,,,0.00,183.00,VWS V14.01,2013-05-14 11:58:00,
2013-05-14 06:59:00,57.6,44.7,29.88,SSE,161,8.8,12.1,62,0.00,,,0.00,185.00,VWS V14.01,2013-05-14 11:59:00,
2013-05-14 07:02:00,57.8,44.9,29.88,SSW,193,12.1,12.1,62,0.00,,,0.00,192.00,VWS V14.01,2013-05-14 12:02:00,
2013-05-14 07:03:00,57.8,44.9,29.88,SSW,195,6.6,12.1,62,0.00,,,0.00,197.00,VWS V14.01,2013-05-14 12:03:00,
2013-05-14 07:04:00,58.0,45.1,29.88,SSW,201,12.1,19.8,62,0.00,,,0.00,199.00,VWS V14.01,2013-05-14 12:04:00,
2013-05-14 07:07:00,58.1,45.2,29.88,SSW,201,7.7,15.4,62,0.00,,,0.00,209.00,VWS V14.01,2013-05-14 12:07:00,
2013-05-14 07:08:00,58.2,45.3,29.88,South,170,9.9,18.7,62,0.00,,,0.00,213.00,VWS V14.01,2013-05-14 12:08:00,
2013-05-14 07:09:00,58.2,44.8,29.88,South,172,4.4,7.7,61,0.00,,,0.00,216.00,VWS V14.01,2013-05-14 12:09:00,
2013-05-14 07:12:00,58.4,45.5,29.88,SSW,197,5.5,9.9,62,0.00,,,0.00,227.00,VWS V14.01,2013-05-14 12:12:00,
2013-05-14 07:14:00,58.5,46.0,29.88,South,187,6.6,8.8,63,0.00,,,0.00,230.00,VWS V14.01,2013-05-14 12:14:00,
2013-05-14 07:15:00,58.6,45.6,29.88,South,179,6.6,8.8,62,0.00,,,0.00,236.00,VWS V14.01,2013-05-14 12:15:00,
2013-05-14 07:16:00,58.7,45.3,29.88,SW,225,7.7,14.3,61,0.00,,,0.00,237.00,VWS V14.01,2013-05-14 12:16:00,
2013-05-14 07:18:00,58.7,45.3,29.87,South,188,11.0,15.4,61,0.00,,,0.00,243.00,VWS V14.01,2013-05-14 12:18:00,
2013-05-14 07:19:00,58.8,45.4,29.87,South,188,6.6,12.1,61,0.00,,,0.00,248.00,VWS V14.01,2013-05-14 12:19:00,
2013-05-14 07:21:00,58.9,45.5,29.87,SSE,166,12.1,14.3,61,0.00,,,0.00,248.00,VWS V14.01,2013-05-14 12:21:00,
2013-05-14 07:24:00,59.1,45.7,29.87,SSW,209,7.7,11.0,61,0.00,,,0.00,260.00,VWS V14.01,2013-05-14 12:24:00,
2013-05-14 07:25:00,59.2,46.2,29.87,WSW,247,8.8,13.2,62,0.00,,,0.00,264.00,VWS V14.01,2013-05-14 12:25:00,
2013-05-14 07:26:00,59.3,46.3,29.87,SSW,206,9.9,15.4,62,0.00,,,0.00,267.00,VWS V14.01,2013-05-14 12:26:00,
2013-05-14 07:29:00,59.5,46.5,29.87,SSW,205,7.7,8.8,62,0.00,,,0.00,279.00,VWS V14.01,2013-05-14 12:29:00,
2013-05-14 07:30:00,59.5,46.1,29.87,SSW,199,5.5,8.8,61,0.00,,,0.00,279.00,VWS V14.01,2013-05-14 12:30:00,
2013-05-14 07:31:00,59.7,46.7,29.87,South,178,7.7,18.7,62,0.00,,,0.00,285.00,VWS V14.01,2013-05-14 12:31:00,
2013-05-14 07:33:00,59.8,46.8,29.87,SSE,163,8.8,9.9,62,0.00,,,0.00,288.00,VWS V14.01,2013-05-14 12:33:00,
2013-05-14 07:35:00,60.0,46.5,29.87,SSW,195,7.7,16.5,61,0.00,,,0.00,295.00,VWS V14.01,2013-05-14 12:35:00,
2013-05-14 07:36:00,60.0,46.5,29.87,South,179,17.6,17.6,61,0.00,,,0.00,302.00,VWS V14.01,2013-05-14 12:36:00,
2013-05-14 07:37:00,60.1,46.6,29.87,SSE,158,7.7,17.6,61,0.00,,,0.00,302.00,VWS V14.01,2013-05-14 12:37:00,
2013-05-14 07:39:00,60.2,47.2,29.87,SSW,205,13.2,14.3,62,0.00,,,0.00,311.00,VWS V14.01,2013-05-14 12:39:00,
2013-05-14 07:40:00,60.3,46.8,29.86,SSW,204,14.3,18.7,61,0.00,,,0.00,315.00,VWS V14.01,2013-05-14 12:40:00,
2013-05-14 07:41:00,60.4,46.9,29.87,SW,235,9.9,12.1,61,0.00,,,0.00,320.00,VWS V14.01,2013-05-14 12:41:00,
2013-05-14 07:44:00,60.5,47.0,29.87,South,183,11.0,13.2,61,0.00,,,0.00,327.00,VWS V14.01,2013-05-14 12:44:00,
2013-05-14 07:45:00,60.6,47.1,29.86,SSE,156,6.6,12.1,61,0.00,,,0.00,330.00,VWS V14.01,2013-05-14 12:45:00,
2013-05-14 07:46:00,60.7,47.6,29.86,South,183,13.2,17.6,62,0.00,,,0.00,332.00,VWS V14.01,2013-05-14 12:46:00,
2013-05-14 07:47:00,60.8,47.3,29.86,ESE,119,7.7,16.5,61,0.00,,,0.00,339.00,VWS V14.01,2013-05-14 12:47:00,
2013-05-14 07:49:00,60.9,47.4,29.86,SSW,197,7.7,16.5,61,0.00,,,0.00,343.00,VWS V14.01,2013-05-14 12:49:00,
2013-05-14 07:50:00,60.9,46.9,29.86,SSW,208,17.6,17.6,60,0.00,,,0.00,343.00,VWS V14.01,2013-05-14 12:50:00,
2013-05-14 07:51:00,61.0,47.0,29.86,South,174,9.9,17.6,60,0.00,,,0.00,350.00,VWS V14.01,2013-05-14 12:51:00,
2013-05-14 07:52:00,61.1,47.1,29.86,South,175,8.8,14.3,60,0.00,,,0.00,353.00,VWS V14.01,2013-05-14 12:52:00,
2013-05-14 07:54:00,61.2,47.2,29.86,SSW,210,13.2,18.7,60,0.00,,,0.00,360.00,VWS V14.01,2013-05-14 12:54:00,
2013-05-14 07:55:00,61.3,47.8,29.86,SSW,211,15.4,17.6,61,0.00,,,0.00,362.00,VWS V14.01,2013-05-14 12:55:00,
2013-05-14 07:56:00,61.3,47.3,29.86,South,177,22.0,22.0,60,0.00,,,0.00,364.00,VWS V14.01,2013-05-14 12:56:00,
2013-05-14 07:57:00,61.4,47.4,29.86,SSE,150,13.2,22.0,60,0.00,,,0.00,367.00,VWS V14.01,2013-05-14 12:57:00,
2013-05-14 07:58:00,61.4,47.4,29.86,SSW,197,9.9,18.7,60,0.00,,,0.00,371.00,VWS V14.01,2013-05-14 12:58:00,
2013-05-14 07:59:00,61.6,47.6,29.86,West,262,12.1,12.1,60,0.00,,,0.00,376.00,VWS V14.01,2013-05-14 12:59:00,
2013-05-14 08:01:00,61.7,48.1,29.86,SSW,193,5.5,5.5,61,0.00,,,0.00,378.00,VWS V14.01,2013-05-14 13:01:00,
2013-05-14 08:02:00,61.9,47.9,29.86,South,177,9.9,19.8,60,0.00,,,0.00,383.00,VWS V14.01,2013-05-14 13:02:00,
2013-05-14 08:04:00,62.1,48.1,29.86,SSW,194,7.7,12.1,60,0.00,,,0.00,394.00,VWS V14.01,2013-05-14 13:04:00,
2013-05-14 08:07:00,62.3,48.2,29.85,SW,228,9.9,15.4,60,0.00,,,0.00,399.00,VWS V14.01,2013-05-14 13:07:00,
2013-05-14 08:10:00,62.5,48.0,29.86,SW,221,13.2,22.0,59,0.00,,,0.00,408.00,VWS V14.01,2013-05-14 13:10:00,
2013-05-14 08:11:00,62.6,48.1,29.85,South,187,12.1,14.3,59,0.00,,,0.00,410.00,VWS V14.01,2013-05-14 13:11:00,
2013-05-14 08:12:00,62.6,48.1,29.85,SW,228,8.8,9.9,59,0.00,,,0.00,417.00,VWS V14.01,2013-05-14 13:12:00,
2013-05-14 08:13:00,62.7,48.2,29.85,West,262,9.9,16.5,59,0.00,,,0.00,420.00,VWS V14.01,2013-05-14 13:13:00,
2013-05-14 08:15:00,62.8,48.7,29.85,SSW,199,7.7,14.3,60,0.00,,,0.00,425.00,VWS V14.01,2013-05-14 13:15:00,
2013-05-14 08:17:00,63.0,48.5,29.85,SSE,163,6.6,11.0,59,0.00,,,0.00,429.00,VWS V14.01,2013-05-14 13:17:00,
2013-05-14 08:18:00,63.1,49.0,29.85,SW,215,18.7,20.9,60,0.00,,,0.00,432.00,VWS V14.01,2013-05-14 13:18:00,
2013-05-14 08:19:00,63.2,48.7,29.85,South,174,13.2,22.0,59,0.00,,,0.00,438.00,VWS V14.01,2013-05-14 13:19:00,
2013-05-14 08:21:00,63.4,48.8,29.86,SSW,199,9.9,9.9,59,0.00,,,0.00,450.00,VWS V14.01,2013-05-14 13:21:00,
2013-05-14 08:22:00,63.5,49.4,29.86,SW,222,7.7,19.8,60,0.00,,,0.00,454.00,VWS V14.01,2013-05-14 13:22:00,
2013-05-14 08:23:00,63.5,48.9,29.85,WNW,302,14.3,17.6,59,0.00,,,0.00,454.00,VWS V14.01,2013-05-14 13:23:00,
2013-05-14 08:24:00,63.6,48.6,29.85,SSE,154,19.8,19.8,58,0.00,,,0.00,457.00,VWS V14.01,2013-05-14 13:24:00,
2013-05-14 08:28:00,64.0,49.4,29.85,South,188,12.1,14.3,59,0.00,,,0.00,468.00,VWS V14.01,2013-05-14 13:28:00,
2013-05-14 08:29:00,64.1,49.0,29.85,SSW,200,8.8,14.3,58,0.00,,,0.00,476.00,VWS V14.01,2013-05-14 13:29:00,
2013-05-14 08:30:00,64.3,49.7,29.85,SSW,209,6.6,11.0,59,0.00,,,0.00,478.00,VWS V14.01,2013-05-14 13:30:00,
2013-05-14 08:33:00,64.6,49.5,29.85,WSW,251,8.8,15.4,58,0.00,,,0.00,485.00,VWS V14.01,2013-05-14 13:33:00,
2013-05-14 08:34:00,64.7,49.6,29.85,South,173,14.3,17.6,58,0.00,,,0.00,490.00,VWS V14.01,2013-05-14 13:34:00,
2013-05-14 08:36:00,64.8,49.7,29.85,SSW,205,7.7,14.3,58,0.00,,,0.00,492.00,VWS V14.01,2013-05-14 13:36:00,
2013-05-14 08:38:00,64.9,49.8,29.85,South,187,7.7,15.4,58,0.00,,,0.00,501.00,VWS V14.01,2013-05-14 13:38:00,
2013-05-14 08:39:00,65.1,50.0,29.85,SSW,198,14.3,14.3,58,0.00,,,0.00,506.00,VWS V14.01,2013-05-14 13:39:00,
2013-05-14 08:41:00,65.2,50.5,29.85,SSW,210,4.4,9.9,59,0.00,,,0.00,508.00,VWS V14.01,2013-05-14 13:41:00,
2013-05-14 08:42:00,65.5,50.3,29.85,South,188,19.8,19.8,58,0.00,,,0.00,513.00,VWS V14.01,2013-05-14 13:42:00,
2013-05-14 08:43:00,65.6,50.0,29.85,WSW,239,7.7,19.8,57,0.00,,,0.00,517.00,VWS V14.01,2013-05-14 13:43:00,
2013-05-14 08:46:00,65.7,50.1,29.85,SSW,212,15.4,15.4,57,0.00,,,0.00,527.00,VWS V14.01,2013-05-14 13:46:00,
2013-05-14 08:47:00,65.8,50.2,29.85,SSW,207,14.3,16.5,57,0.00,,,0.00,527.00,VWS V14.01,2013-05-14 13:47:00,
2013-05-14 08:48:00,65.8,50.2,29.85,SW,236,18.7,18.7,57,0.00,,,0.00,533.00,VWS V14.01,2013-05-14 13:48:00,
2013-05-14 08:50:00,65.8,50.2,29.85,SW,233,13.2,17.6,57,0.00,,,0.00,538.00,VWS V14.01,2013-05-14 13:50:00,
2013-05-14 08:51:00,65.8,50.2,29.85,South,172,11.0,15.4,57,0.00,,,0.00,543.00,VWS V14.01,2013-05-14 13:51:00,
2013-05-14 08:52:00,65.9,50.2,29.85,WSW,248,7.7,16.5,57,0.00,,,0.00,547.00,VWS V14.01,2013-05-14 13:52:00,
2013-05-14 08:53:00,65.9,50.2,29.85,SW,218,16.5,16.5,57,0.00,,,0.00,547.00,VWS V14.01,2013-05-14 13:53:00,
2013-05-14 08:54:00,65.9,50.2,29.85,WSW,258,8.8,17.6,57,0.00,,,0.00,547.00,VWS V14.01,2013-05-14 13:54:00,
2013-05-14 08:55:00,66.1,50.4,29.85,SSE,158,16.5,16.5,57,0.00,,,0.00,554.00,VWS V14.01,2013-05-14 13:55:00,
2013-05-14 08:57:00,66.3,50.6,29.84,SE,137,5.5,12.1,57,0.00,,,0.00,568.00,VWS V14.01,2013-05-14 13:57:00,
2013-05-14 08:58:00,66.3,50.6,29.84,SE,138,6.6,8.8,57,0.00,,,0.00,568.00,VWS V14.01,2013-05-14 13:58:00,
2013-05-14 08:59:00,66.4,50.7,29.84,SW,231,14.3,14.3,57,0.00,,,0.00,571.00,VWS V14.01,2013-05-14 13:59:00,
2013-05-14 09:01:00,66.6,50.9,29.84,SSW,200,8.8,16.5,57,0.00,,,0.00,577.00,VWS V14.01,2013-05-14 14:01:00,
2013-05-14 09:02:00,66.6,50.9,29.84,WSW,256,17.6,17.6,57,0.00,,,0.00,582.00,VWS V14.01,2013-05-14 14:02:00,
2013-05-14 09:03:00,66.6,50.9,29.84,SW,216,12.1,17.6,57,0.00,,,0.00,582.00,VWS V14.01,2013-05-14 14:03:00,
2013-05-14 09:04:00,66.7,51.0,29.84,WSW,255,7.7,14.3,57,0.00,,,0.00,585.00,VWS V14.01,2013-05-14 14:04:00,
2013-05-14 09:08:00,67.2,51.5,29.84,South,187,9.9,12.1,57,0.00,,,0.00,594.00,VWS V14.01,2013-05-14 14:08:00,
2013-05-14 09:09:00,67.4,52.1,29.84,SSW,208,8.8,13.2,58,0.00,,,0.00,598.00,VWS V14.01,2013-05-14 14:09:00,
2013-05-14 09:10:00,67.7,51.9,29.84,SSW,212,9.9,9.9,57,0.00,,,0.00,603.00,VWS V14.01,2013-05-14 14:10:00,
2013-05-14 09:13:00,68.1,52.3,29.84,SSW,208,13.2,13.2,57,0.00,,,0.00,610.00,VWS V14.01,2013-05-14 14:13:00,
2013-05-14 09:14:00,68.1,52.3,29.84,West,267,7.7,13.2,57,0.00,,,0.00,613.00,VWS V14.01,2013-05-14 14:14:00,
2013-05-14 09:15:00,68.1,51.8,29.84,SSW,195,12.1,18.7,56,0.00,,,0.00,613.00,VWS V14.01,2013-05-14 14:15:00,
2013-05-14 09:18:00,68.2,51.9,29.83,SW,234,17.6,19.8,56,0.00,,,0.00,624.00,VWS V14.01,2013-05-14 14:18:00,
2013-05-14 09:20:00,68.3,52.0,29.83,SW,233,17.6,19.8,56,0.00,,,0.00,631.00,VWS V14.01,2013-05-14 14:20:00,
2013-05-14 09:21:00,68.4,52.1,29.83,WSW,251,5.5,14.3,56,0.00,,,0.00,633.00,VWS V14.01,2013-05-14 14:21:00,
2013-05-14 09:23:00,68.5,52.2,29.83,SW,235,15.4,15.4,56,0.00,,,0.00,642.00,VWS V14.01,2013-05-14 14:23:00,
2013-05-14 09:24:00,68.5,52.2,29.83,WSW,253,9.9,16.5,56,0.00,,,0.00,643.00,VWS V14.01,2013-05-14 14:24:00,
2013-05-14 09:25:00,68.5,52.2,29.83,West,262,6.6,15.4,56,0.00,,,0.00,647.00,VWS V14.01,2013-05-14 14:25:00,
2013-05-14 09:26:00,68.5,52.2,29.83,SSW,206,12.1,13.2,56,0.00,,,0.00,650.00,VWS V14.01,2013-05-14 14:26:00,
2013-05-14 09:29:00,68.8,52.5,29.83,South,187,7.7,11.0,56,0.00,,,0.00,659.00,VWS V14.01,2013-05-14 14:29:00,
2013-05-14 09:30:00,69.0,52.2,29.83,SW,226,12.1,19.8,55,0.00,,,0.00,659.00,VWS V14.01,2013-05-14 14:30:00,
2013-05-14 09:31:00,69.2,52.4,29.83,SW,233,11.0,16.5,55,0.00,,,0.00,664.00,VWS V14.01,2013-05-14 14:31:00,
2013-05-14 09:32:00,69.2,52.8,29.83,SW,222,8.8,16.5,56,0.00,,,0.00,668.00,VWS V14.01,2013-05-14 14:32:00,
2013-05-14 09:34:00,69.4,53.0,29.83,SW,230,7.7,12.1,56,0.00,,,0.00,671.00,VWS V14.01,2013-05-14 14:34:00,
2013-05-14 09:36:00,69.6,53.2,29.83,SW,222,15.4,15.4,56,0.00,,,0.00,675.00,VWS V14.01,2013-05-14 14:36:00,
2013-05-14 09:37:00,69.8,53.9,29.83,WSW,257,17.6,17.6,57,0.00,,,0.00,679.00,VWS V14.01,2013-05-14 14:37:00,
2013-05-14 09:38:00,69.9,53.0,29.83,West,269,15.4,16.5,55,0.00,,,0.00,680.00,VWS V14.01,2013-05-14 14:38:00,
2013-05-14 09:39:00,70.0,53.1,29.83,WSW,245,14.3,23.1,55,0.00,,,0.00,684.00,VWS V14.01,2013-05-14 14:39:00,
2013-05-14 09:41:00,70.0,52.6,29.83,WSW,241,7.7,15.4,54,0.00,,,0.00,689.00,VWS V14.01,2013-05-14 14:41:00,
2013-05-14 09:42:00,70.0,53.1,29.83,West,279,15.4,16.5,55,0.00,,,0.00,693.00,VWS V14.01,2013-05-14 14:42:00,
2013-05-14 09:43:00,70.1,53.2,29.83,West,272,17.6,22.0,55,0.00,,,0.00,694.00,VWS V14.01,2013-05-14 14:43:00,
2013-05-14 09:45:00,70.2,53.8,29.83,SSW,212,8.8,14.3,56,0.00,,,0.00,701.00,VWS V14.01,2013-05-14 14:45:00,
2013-05-14 09:46:00,70.3,53.9,29.83,SSW,200,11.0,14.3,56,0.00,,,0.00,703.00,VWS V14.01,2013-05-14 14:46:00,
2013-05-14 09:48:00,70.6,53.7,29.83,WSW,255,13.2,17.6,55,0.00,,,0.00,707.00,VWS V14.01,2013-05-14 14:48:00,
2013-05-14 09:49:00,70.6,53.7,29.83,WSW,239,11.0,20.9,55,0.00,,,0.00,710.00,VWS V14.01,2013-05-14 14:49:00,
2013-05-14 09:50:00,70.7,53.8,29.82,SW,226,12.1,15.4,55,0.00,,,0.00,714.00,VWS V14.01,2013-05-14 14:50:00,
2013-05-14 09:51:00,70.7,53.8,29.82,WSW,239,20.9,20.9,55,0.00,,,0.00,717.00,VWS V14.01,2013-05-14 14:51:00,
2013-05-14 09:52:00,70.8,53.8,29.82,SSW,196,7.7,7.7,55,0.00,,,0.00,719.00,VWS V14.01,2013-05-14 14:52:00,
2013-05-14 09:53:00,70.9,54.0,29.82,SSW,196,6.6,13.2,55,0.00,,,0.00,724.00,VWS V14.01,2013-05-14 14:53:00,
2013-05-14 09:54:00,70.9,53.4,29.82,South,177,6.6,12.1,54,0.00,,,0.00,724.00,VWS V14.01,2013-05-14 14:54:00,
2013-05-14 09:56:00,71.2,53.7,29.82,WSW,258,8.8,9.9,54,0.00,,,0.00,729.00,VWS V14.01,2013-05-14 14:56:00,
2013-05-14 09:57:00,71.3,54.3,29.82,SW,229,13.2,13.2,55,0.00,,,0.00,729.00,VWS V14.01,2013-05-14 14:57:00,
2013-05-14 09:59:00,71.4,54.4,29.82,SW,219,13.2,13.2,55,0.00,,,0.00,735.00,VWS V14.01,2013-05-14 14:59:00,
2013-05-14 10:00:00,71.6,54.6,29.82,SW,227,7.7,16.5,55,0.00,,,0.00,740.00,VWS V14.01,2013-05-14 15:00:00,
2013-05-14 10:02:00,71.9,54.4,29.82,SSE,164,14.3,19.8,54,0.00,,,0.00,744.00,VWS V14.01,2013-05-14 15:02:00,
2013-05-14 10:04:00,72.1,55.1,29.82,West,263,11.0,11.0,55,0.00,,,0.00,747.00,VWS V14.01,2013-05-14 15:04:00,
2013-05-14 10:06:00,72.3,55.2,29.82,SW,224,9.9,13.2,55,0.00,,,0.00,754.00,VWS V14.01,2013-05-14 15:06:00,
2013-05-14 10:08:00,72.3,54.7,29.82,WSW,237,9.9,12.1,54,0.00,,,0.00,758.00,VWS V14.01,2013-05-14 15:08:00,
2013-05-14 10:09:00,72.4,54.8,29.82,WSW,239,11.0,17.6,54,0.00,,,0.00,763.00,VWS V14.01,2013-05-14 15:09:00,
2013-05-14 10:11:00,72.5,54.4,29.82,WSW,249,15.4,20.9,53,0.00,,,0.00,766.00,VWS V14.01,2013-05-14 15:11:00,
2013-05-14 10:12:00,72.5,54.4,29.82,SW,236,11.0,17.6,53,0.00,,,0.00,766.00,VWS V14.01,2013-05-14 15:12:00,
2013-05-14 10:13:00,72.7,54.6,29.82,WSW,242,5.5,11.0,53,0.00,,,0.00,772.00,VWS V14.01,2013-05-14 15:13:00,
2013-05-14 10:14:00,72.8,55.2,29.81,SW,226,9.9,16.5,54,0.00,,,0.00,775.00,VWS V14.01,2013-05-14 15:14:00,
2013-05-14 10:16:00,73.0,54.9,29.81,SW,229,14.3,14.3,53,0.00,,,0.00,779.00,VWS V14.01,2013-05-14 15:16:00,
2013-05-14 10:17:00,73.1,55.0,29.81,WSW,243,9.9,14.3,53,0.00,,,0.00,784.00,VWS V14.01,2013-05-14 15:17:00,
2013-05-14 10:19:00,73.2,55.1,29.81,WSW,253,13.2,16.5,53,0.00,,,0.00,786.00,VWS V14.01,2013-05-14 15:19:00,
2013-05-14 10:20:00,73.3,55.2,29.81,WSW,247,11.0,13.2,53,0.00,,,0.00,789.00,VWS V14.01,2013-05-14 15:20:00,
2013-05-14 10:22:00,73.4,55.2,29.81,West,278,12.1,13.2,53,0.00,,,0.00,795.00,VWS V14.01,2013-05-14 15:22:00,
2013-05-14 10:24:00,73.6,55.4,29.81,West,278,13.2,14.3,53,0.00,,,0.00,800.00,VWS V14.01,2013-05-14 15:24:00,
2013-05-14 10:25:00,73.6,54.9,29.81,West,263,12.1,12.1,52,0.00,,,0.00,802.00,VWS V14.01,2013-05-14 15:25:00,
2013-05-14 10:27:00,73.8,55.1,29.81,WSW,252,8.8,13.2,52,0.00,,,0.00,805.00,VWS V14.01,2013-05-14 15:27:00,
2013-05-14 10:29:00,74.0,55.3,29.81,WSW,250,11.0,13.2,52,0.00,,,0.00,810.00,VWS V14.01,2013-05-14 15:29:00,
2013-05-14 10:30:00,74.1,55.4,29.81,WSW,237,9.9,9.9,52,0.00,,,0.00,812.00,VWS V14.01,2013-05-14 15:30:00,
2013-05-14 10:31:00,74.2,54.9,29.81,SSW,203,11.0,16.5,51,0.00,,,0.00,812.00,VWS V14.01,2013-05-14 15:31:00,
2013-05-14 10:32:00,74.3,56.1,29.81,WSW,245,11.0,13.2,53,0.00,,,0.00,814.00,VWS V14.01,2013-05-14 15:32:00,
2013-05-14 10:35:00,74.4,55.7,29.81,West,266,9.9,11.0,52,0.00,,,0.00,821.00,VWS V14.01,2013-05-14 15:35:00,
2013-05-14 10:36:00,74.4,55.7,29.81,West,259,16.5,16.5,52,0.00,,,0.00,823.00,VWS V14.01,2013-05-14 15:36:00,
2013-05-14 10:37:00,74.4,55.7,29.81,WNW,302,12.1,14.3,52,0.00,,,0.00,823.00,VWS V14.01,2013-05-14 15:37:00,
2013-05-14 10:38:00,74.4,56.2,29.81,West,264,13.2,15.4,53,0.00,,,0.00,826.00,VWS V14.01,2013-05-14 15:38:00,
2013-05-14 10:41:00,74.4,56.2,29.81,SW,231,4.4,7.7,53,0.00,,,0.00,830.00,VWS V14.01,2013-05-14 15:41:00,
2013-05-14 10:43:00,74.7,56.5,29.81,WSW,237,14.3,15.4,53,0.00,,,0.00,833.00,VWS V14.01,2013-05-14 15:43:00,
2013-05-14 10:46:00,75.2,55.8,29.81,SW,233,13.2,17.6,51,0.00,,,0.00,842.00,VWS V14.01,2013-05-14 15:46:00,
2013-05-14 10:47:00,75.3,55.9,29.81,WSW,245,15.4,19.8,51,0.00,,,0.00,844.00,VWS V14.01,2013-05-14 15:47:00,
2013-05-14 10:48:00,75.4,56.0,29.80,SW,228,8.8,11.0,51,0.00,,,0.00,849.00,VWS V14.01,2013-05-14 15:48:00,
2013-05-14 10:49:00,75.4,56.0,29.80,WSW,239,9.9,12.1,51,0.00,,,0.00,849.00,VWS V14.01,2013-05-14 15:49:00,
2013-05-14 10:51:00,75.8,56.9,29.80,WSW,257,14.3,20.9,52,0.00,,,0.00,853.00,VWS V14.01,2013-05-14 15:51:00,
2013-05-14 10:52:00,75.9,57.0,29.80,SW,222,14.3,14.3,52,0.00,,,0.00,854.00,VWS V14.01,2013-05-14 15:52:00,
2013-05-14 10:53:00,76.0,56.6,29.80,West,264,15.4,17.6,51,0.00,,,0.00,858.00,VWS V14.01,2013-05-14 15:53:00,
2013-05-14 10:54:00,75.9,56.5,29.80,SW,220,16.5,19.8,51,0.00,,,0.00,860.00,VWS V14.01,2013-05-14 15:54:00,
2013-05-14 10:56:00,75.8,56.9,29.80,WSW,245,11.0,13.2,52,0.00,,,0.00,865.00,VWS V14.01,2013-05-14 15:56:00,
2013-05-14 10:58:00,75.9,57.0,29.80,WSW,253,13.2,18.7,52,0.00,,,0.00,867.00,VWS V14.01,2013-05-14 15:58:00,
2013-05-14 10:59:00,76.0,56.6,29.80,West,259,20.9,20.9,51,0.00,,,0.00,868.00,VWS V14.01,2013-05-14 15:59:00,
2013-05-14 11:00:00,75.9,56.5,29.80,West,269,16.5,19.8,51,0.00,,,0.00,870.00,VWS V14.01,2013-05-14 16:00:00,
2013-05-14 11:01:00,75.9,57.6,29.80,WSW,238,15.4,15.4,53,0.00,,,0.00,874.00,VWS V14.01,2013-05-14 16:01:00,
2013-05-14 11:04:00,76.3,56.9,29.80,WSW,240,11.0,14.3,51,0.00,,,0.00,875.00,VWS V14.01,2013-05-14 16:04:00,
2013-05-14 11:05:00,76.5,56.5,29.80,WSW,243,12.1,12.1,50,0.00,,,0.00,881.00,VWS V14.01,2013-05-14 16:05:00,
2013-05-14 11:06:00,76.5,57.6,29.80,WSW,239,9.9,9.9,52,0.00,,,0.00,881.00,VWS V14.01,2013-05-14 16:06:00,
2013-05-14 11:07:00,76.6,57.1,29.80,SW,222,7.7,14.3,51,0.00,,,0.00,882.00,VWS V14.01,2013-05-14 16:07:00,
2013-05-14 11:09:00,76.8,57.9,29.80,WSW,252,9.9,9.9,52,0.00,,,0.00,886.00,VWS V14.01,2013-05-14 16:09:00,
2013-05-14 11:10:00,76.8,56.8,29.80,WSW,239,13.2,13.2,50,0.00,,,0.00,889.00,VWS V14.01,2013-05-14 16:10:00,
2013-05-14 11:11:00,76.8,58.4,29.80,WSW,251,18.7,18.7,53,0.00,,,0.00,891.00,VWS V14.01,2013-05-14 16:11:00,
2013-05-14 11:12:00,76.8,56.8,29.80,West,264,8.8,11.0,50,0.00,,,0.00,895.00,VWS V14.01,2013-05-14 16:12:00,
2013-05-14 11:15:00,76.6,57.1,29.80,WSW,257,15.4,18.7,51,0.00,,,0.00,896.00,VWS V14.01,2013-05-14 16:15:00,
2013-05-14 11:16:00,76.6,57.1,29.79,SW,228,12.1,17.6,51,0.00,,,0.00,902.00,VWS V14.01,2013-05-14 16:16:00,
2013-05-14 11:17:00,76.7,57.8,29.79,South,189,7.7,15.4,52,0.00,,,0.00,902.00,VWS V14.01,2013-05-14 16:17:00,
2013-05-14 11:20:00,76.8,57.9,29.80,WSW,243,6.6,12.1,52,0.00,,,0.00,907.00,VWS V14.01,2013-05-14 16:20:00,
2013-05-14 11:21:00,77.0,58.0,29.79,West,259,6.6,12.1,52,0.00,,,0.00,905.00,VWS V14.01,2013-05-14 16:21:00,
2013-05-14 11:22:00,77.0,57.5,29.79,WSW,238,12.1,12.1,51,0.00,,,0.00,911.00,VWS V14.01,2013-05-14 16:22:00,
2013-05-14 11:26:00,77.3,57.2,29.80,West,259,9.9,13.2,50,0.00,,,0.00,912.00,VWS V14.01,2013-05-14 16:26:00,
2013-05-14 11:27:00,77.4,57.3,29.80,WSW,257,11.0,14.3,50,0.00,,,0.00,916.00,VWS V14.01,2013-05-14 16:27:00,
2013-05-14 11:32:00,77.9,58.9,29.79,SSW,202,5.5,8.8,52,0.00,,,0.00,921.00,VWS V14.01,2013-05-14 16:32:00,
2013-05-14 11:33:00,78.0,57.3,29.79,West,260,5.5,8.8,49,0.00,,,0.00,923.00,VWS V14.01,2013-05-14 16:33:00,
2013-05-14 11:34:00,78.2,58.1,29.79,WSW,240,4.4,7.7,50,0.00,,,0.00,925.00,VWS V14.01,2013-05-14 16:34:00,
2013-05-14 11:37:00,78.6,58.4,29.79,WSW,257,6.6,6.6,50,0.00,,,0.00,928.00,VWS V14.01,2013-05-14 16:37:00,
2013-05-14 11:38:00,78.6,57.9,29.79,WSW,242,8.8,8.8,49,0.00,,,0.00,930.00,VWS V14.01,2013-05-14 16:38:00,
2013-05-14 11:40:00,78.4,58.2,29.79,WSW,252,5.5,9.9,50,0.00,,,0.00,935.00,VWS V14.01,2013-05-14 16:40:00,
2013-05-14 11:43:00,78.7,58.0,29.79,West,278,9.9,18.7,49,0.00,,,0.00,937.00,VWS V14.01,2013-05-14 16:43:00,
2013-05-14 11:44:00,78.7,59.1,29.79,West,270,14.3,16.5,51,0.00,,,0.00,937.00,VWS V14.01,2013-05-14 16:44:00,
2013-05-14 11:46:00,78.8,58.6,29.79,WSW,253,5.5,8.8,50,0.00,,,0.00,939.00,VWS V14.01,2013-05-14 16:46:00,
2013-05-14 11:48:00,78.9,58.1,29.79,West,268,6.6,8.8,49,0.00,,,0.00,940.00,VWS V14.01,2013-05-14 16:48:00,
2013-05-14 11:50:00,79.1,58.9,29.79,West,264,12.1,17.6,50,0.00,,,0.00,944.00,VWS V14.01,2013-05-14 16:50:00,
2013-05-14 11:51:00,79.1,57.8,29.79,SW,235,7.7,12.1,48,0.00,,,0.00,944.00,VWS V14.01,2013-05-14 16:51:00,
2013-05-14 11:53:00,79.2,58.4,29.79,SW,227,12.1,12.1,49,0.00,,,0.00,947.00,VWS V14.01,2013-05-14 16:53:00,
2013-05-14 11:54:00,79.2,57.8,29.79,WSW,258,8.8,16.5,48,0.00,,,0.00,947.00,VWS V14.01,2013-05-14 16:54:00,
2013-05-14 11:56:00,79.1,58.3,29.79,SW,231,11.0,18.7,49,0.00,,,0.00,951.00,VWS V14.01,2013-05-14 16:56:00,
2013-05-14 11:57:00,78.9,58.1,29.79,SSW,202,5.5,13.2,49,0.00,,,0.00,949.00,VWS V14.01,2013-05-14 16:57:00,
2013-05-14 11:58:00,78.6,59.0,29.79,SSW,212,7.7,12.1,51,0.00,,,0.00,954.00,VWS V14.01,2013-05-14 16:58:00,
2013-05-14 11:59:00,78.5,58.3,29.79,WSW,255,8.8,12.1,50,0.00,,,0.00,953.00,VWS V14.01,2013-05-14 16:59:00,
2013-05-14 12:01:00,78.5,58.9,29.79,SW,216,7.7,9.9,51,0.00,,,0.00,954.00,VWS V14.01,2013-05-14 17:01:00,
2013-05-14 12:02:00,78.5,58.3,29.79,West,263,9.9,12.1,50,0.00,,,0.00,956.00,VWS V14.01,2013-05-14 17:02:00,
2013-05-14 12:04:00,78.6,58.4,29.79,West,269,8.8,11.0,50,0.00,,,0.00,956.00,VWS V14.01,2013-05-14 17:04:00,
2013-05-14 12:05:00,78.5,58.9,29.79,SW,226,7.7,8.8,51,0.00,,,0.00,958.00,VWS V14.01,2013-05-14 17:05:00,
2013-05-14 12:06:00,78.4,58.2,29.79,West,276,9.9,9.9,50,0.00,,,0.00,958.00,VWS V14.01,2013-05-14 17:06:00,
2013-05-14 12:07:00,78.2,58.1,29.79,WNW,283,8.8,11.0,50,0.00,,,0.00,958.00,VWS V14.01,2013-05-14 17:07:00,
2013-05-14 12:09:00,78.0,59.0,29.79,WSW,249,8.8,13.2,52,0.00,,,0.00,960.00,VWS V14.01,2013-05-14 17:09:00,
2013-05-14 12:10:00,77.9,58.3,29.79,WNW,283,9.9,9.9,51,0.00,,,0.00,962.00,VWS V14.01,2013-05-14 17:10:00,
2013-05-14 12:12:00,78.3,60.3,29.79,WSW,243,11.0,11.0,54,0.00,,,0.00,962.00,VWS V14.01,2013-05-14 17:12:00,
2013-05-14 12:13:00,78.4,59.3,29.79,WSW,255,11.0,12.1,52,0.00,,,0.00,962.00,VWS V14.01,2013-05-14 17:13:00,
2013-05-14 12:14:00,78.5,58.3,29.79,WSW,247,11.0,11.0,50,0.00,,,0.00,963.00,VWS V14.01,2013-05-14 17:14:00,
2013-05-14 12:15:00,78.7,58.5,29.80,WSW,253,16.5,18.7,50,0.00,,,0.00,965.00,VWS V14.01,2013-05-14 17:15:00,
2013-05-14 12:16:00,78.8,58.6,29.79,West,264,9.9,16.5,50,0.00,,,0.00,963.00,VWS V14.01,2013-05-14 17:16:00,
2013-05-14 12:17:00,78.7,59.1,29.80,West,272,7.7,9.9,51,0.00,,,0.00,963.00,VWS V14.01,2013-05-14 17:17:00,
2013-05-14 12:18:00,78.6,59.5,29.79,WSW,245,8.8,13.2,52,0.00,,,0.00,967.00,VWS V14.01,2013-05-14 17:18:00,
2013-05-14 12:19:00,78.6,60.1,29.79,SSW,212,7.7,13.2,53,0.00,,,0.00,965.00,VWS V14.01,2013-05-14 17:19:00,
2013-05-14 12:21:00,79.0,58.8,29.79,WSW,244,7.7,9.9,50,0.00,,,0.00,967.00,VWS V14.01,2013-05-14 17:21:00,
2013-05-14 12:22:00,79.1,58.3,29.79,WSW,247,5.5,9.9,49,0.00,,,0.00,967.00,VWS V14.01,2013-05-14 17:22:00,
2013-05-14 12:23:00,79.3,58.5,29.79,West,272,12.1,12.1,49,0.00,,,0.00,969.00,VWS V14.01,2013-05-14 17:23:00,
2013-05-14 12:26:00,80.1,59.8,29.79,WSW,251,8.8,13.2,50,0.00,,,0.00,969.00,VWS V14.01,2013-05-14 17:26:00,
2013-05-14 12:27:00,80.2,59.3,29.79,WSW,254,6.6,8.8,49,0.00,,,0.00,970.00,VWS V14.01,2013-05-14 17:27:00,
2013-05-14 12:28:00,80.3,59.4,29.79,WSW,256,8.8,12.1,49,0.00,,,0.00,970.00,VWS V14.01,2013-05-14 17:28:00,
2013-05-14 12:29:00,80.4,58.9,29.79,WSW,250,13.2,13.2,48,0.00,,,0.00,972.00,VWS V14.01,2013-05-14 17:29:00,
2013-05-14 12:32:00,80.6,59.1,29.79,WSW,256,12.1,15.4,48,0.00,,,0.00,972.00,VWS V14.01,2013-05-14 17:32:00,
2013-05-14 12:33:00,80.6,59.1,29.79,SW,235,9.9,14.3,48,0.00,,,0.00,974.00,VWS V14.01,2013-05-14 17:33:00,
2013-05-14 12:34:00,80.7,59.2,29.79,SW,227,14.3,15.4,48,0.00,,,0.00,974.00,VWS V14.01,2013-05-14 17:34:00,
2013-05-14 12:35:00,80.7,58.6,29.79,West,274,11.0,13.2,47,0.00,,,0.00,974.00,VWS V14.01,2013-05-14 17:35:00,
2013-05-14 12:38:00,81.1,61.3,29.78,WSW,258,7.7,12.1,51,0.00,,,0.00,974.00,VWS V14.01,2013-05-14 17:38:00,
2013-05-14 12:39:00,81.1,59.0,29.78,WSW,253,8.8,12.1,47,0.00,,,0.00,979.00,VWS V14.01,2013-05-14 17:39:00,
2013-05-14 12:40:00,81.2,59.1,29.78,WSW,248,13.2,14.3,47,0.00,,,0.00,979.00,VWS V14.01,2013-05-14 17:40:00,
2013-05-14 12:42:00,81.3,59.8,29.78,SW,228,9.9,11.0,48,0.00,,,0.00,977.00,VWS V14.01,2013-05-14 17:42:00,
2013-05-14 12:43:00,81.3,59.2,29.78,WSW,254,6.6,12.1,47,0.00,,,0.00,976.00,VWS V14.01,2013-05-14 17:43:00,
2013-05-14 12:44:00,81.4,59.8,29.78,WSW,245,4.4,9.9,48,0.00,,,0.00,976.00,VWS V14.01,2013-05-14 17:44:00,
2013-05-14 12:45:00,81.5,59.3,29.78,WSW,246,7.7,13.2,47,0.00,,,0.00,981.00,VWS V14.01,2013-05-14 17:45:00,
2013-05-14 12:47:00,81.9,59.7,29.78,WSW,239,11.0,13.2,47,0.00,,,0.00,981.00,VWS V14.01,2013-05-14 17:47:00,
2013-05-14 12:49:00,82.0,58.0,29.78,West,276,9.9,17.6,44,0.00,,,0.00,979.00,VWS V14.01,2013-05-14 17:49:00,
2013-05-14 12:50:00,81.8,60.8,29.78,WSW,241,11.0,16.5,49,0.00,,,0.00,979.00,VWS V14.01,2013-05-14 17:50:00,
2013-05-14 12:51:00,81.8,60.8,29.78,WNW,282,9.9,14.3,49,0.00,,,0.00,979.00,VWS V14.01,2013-05-14 17:51:00,
2013-05-14 12:52:00,81.8,59.6,29.78,West,268,9.9,15.4,47,0.00,,,0.00,981.00,VWS V14.01,2013-05-14 17:52:00,
2013-05-14 12:55:00,81.9,59.7,29.78,WSW,247,8.8,13.2,47,0.00,,,0.00,981.00,VWS V14.01,2013-05-14 17:55:00,
2013-05-14 12:56:00,82.1,59.3,29.78,West,268,13.2,14.3,46,0.00,,,0.00,981.00,VWS V14.01,2013-05-14 17:56:00,
2013-05-14 12:57:00,82.1,59.3,29.78,WSW,237,9.9,13.2,46,0.00,,,0.00,983.00,VWS V14.01,2013-05-14 17:57:00,
2013-05-14 13:00:00,82.9,60.0,29.78,West,281,13.2,19.8,46,0.00,,,0.00,981.00,VWS V14.01,2013-05-14 18:00:00,
2013-05-14 13:01:00,83.0,61.3,29.78,SW,224,14.3,19.8,48,0.00,,,0.00,983.00,VWS V14.01,2013-05-14 18:01:00,
2013-05-14 13:02:00,83.0,61.3,29.78,WSW,239,15.4,15.4,48,0.00,,,0.00,981.00,VWS V14.01,2013-05-14 18:02:00,
2013-05-14 13:06:00,83.2,59.7,29.78,West,278,8.8,15.4,45,0.00,,,0.00,983.00,VWS V14.01,2013-05-14 18:06:00,
2013-05-14 13:07:00,83.0,59.5,29.78,WNW,301,11.0,14.3,45,0.00,,,0.00,983.00,VWS V14.01,2013-05-14 18:07:00,
2013-05-14 13:08:00,82.9,59.4,29.78,WNW,289,13.2,13.2,45,0.00,,,0.00,977.00,VWS V14.01,2013-05-14 18:08:00,
2013-05-14 13:11:00,83.0,59.5,29.78,SSW,212,11.0,13.2,45,0.00,,,0.00,979.00,VWS V14.01,2013-05-14 18:11:00,
2013-05-14 13:12:00,83.1,59.0,29.78,West,270,9.9,12.1,44,0.00,,,0.00,981.00,VWS V14.01,2013-05-14 18:12:00,
2013-05-14 13:13:00,83.4,59.2,29.78,WSW,251,5.5,6.6,44,0.00,,,0.00,974.00,VWS V14.01,2013-05-14 18:13:00,
2013-05-14 13:14:00,83.5,60.6,29.78,WSW,245,7.7,7.7,46,0.00,,,0.00,977.00,VWS V14.01,2013-05-14 18:14:00,
2013-05-14 13:17:00,83.8,60.2,29.77,SW,220,15.4,15.4,45,0.00,,,0.00,976.00,VWS V14.01,2013-05-14 18:17:00,
2013-05-14 13:18:00,83.9,60.9,29.77,West,260,12.1,12.1,46,0.00,,,0.00,976.00,VWS V14.01,2013-05-14 18:18:00,
2013-05-14 13:19:00,84.1,60.5,29.77,SW,234,8.8,8.8,45,0.00,,,0.00,979.00,VWS V14.01,2013-05-14 18:19:00,
2013-05-14 13:20:00,84.0,59.8,29.77,WSW,242,11.0,14.3,44,0.00,,,0.00,979.00,VWS V14.01,2013-05-14 18:20:00,
2013-05-14 13:23:00,84.0,60.4,29.77,WSW,245,8.8,11.0,45,0.00,,,0.00,981.00,VWS V14.01,2013-05-14 18:23:00,
2013-05-14 13:24:00,84.1,59.9,29.77,SSW,194,9.9,9.9,44,0.00,,,0.00,976.00,VWS V14.01,2013-05-14 18:24:00,
2013-05-14 13:25:00,84.2,60.0,29.77,West,266,3.3,9.9,44,0.00,,,0.00,976.00,VWS V14.01,2013-05-14 18:25:00,
2013-05-14 13:26:00,84.6,60.9,29.77,SSE,162,8.8,8.8,45,0.00,,,0.00,976.00,VWS V14.01,2013-05-14 18:26:00,
2013-05-14 13:28:00,85.2,60.2,29.77,WSW,238,13.2,14.3,43,0.00,,,0.00,977.00,VWS V14.01,2013-05-14 18:28:00,
2013-05-14 13:30:00,85.3,60.3,29.77,WSW,249,9.9,13.2,43,0.00,,,0.00,974.00,VWS V14.01,2013-05-14 18:30:00,
2013-05-14 13:31:00,85.2,60.2,29.77,West,273,8.8,16.5,43,0.00,,,0.00,977.00,VWS V14.01,2013-05-14 18:31:00,
2013-05-14 13:33:00,84.9,59.3,29.77,WSW,239,13.2,13.2,42,0.00,,,0.00,970.00,VWS V14.01,2013-05-14 18:33:00,
2013-05-14 13:35:00,84.9,59.9,29.77,SW,221,13.2,13.2,43,0.00,,,0.00,965.00,VWS V14.01,2013-05-14 18:35:00,
2013-05-14 13:37:00,85.1,59.5,29.77,WNW,287,11.0,13.2,42,0.00,,,0.00,970.00,VWS V14.01,2013-05-14 18:37:00,
2013-05-14 13:39:00,85.2,60.8,29.77,West,277,14.3,14.3,44,0.00,,,0.00,970.00,VWS V14.01,2013-05-14 18:39:00,
2013-05-14 13:40:00,85.3,60.3,29.77,WSW,251,11.0,17.6,43,0.00,,,0.00,969.00,VWS V14.01,2013-05-14 18:40:00,
2013-05-14 13:41:00,85.4,60.4,29.77,WNW,287,8.8,11.0,43,0.00,,,0.00,962.00,VWS V14.01,2013-05-14 18:41:00,
2013-05-14 13:44:00,85.2,58.2,29.77,WSW,243,9.9,13.2,40,0.00,,,0.00,969.00,VWS V14.01,2013-05-14 18:44:00,
2013-05-14 13:45:00,85.1,59.5,29.77,West,272,7.7,14.3,42,0.00,,,0.00,967.00,VWS V14.01,2013-05-14 18:45:00,
2013-05-14 13:46:00,85.1,59.5,29.77,WSW,246,9.9,14.3,42,0.00,,,0.00,967.00,VWS V14.01,2013-05-14 18:46:00,
2013-05-14 13:49:00,85.6,59.2,29.77,WNW,294,6.6,16.5,41,0.00,,,0.00,965.00,VWS V14.01,2013-05-14 18:49:00,
2013-05-14 13:50:00,85.8,60.1,29.77,WSW,253,17.6,17.6,42,0.00,,,0.00,965.00,VWS V14.01,2013-05-14 18:50:00,
2013-05-14 13:51:00,85.8,59.4,29.77,West,266,14.3,17.6,41,0.00,,,0.00,965.00,VWS V14.01,2013-05-14 18:51:00,
2013-05-14 13:52:00,85.7,60.0,29.77,WNW,285,9.9,15.4,42,0.00,,,0.00,960.00,VWS V14.01,2013-05-14 18:52:00,
2013-05-14 13:56:00,85.5,59.1,29.77,West,268,6.6,11.0,41,0.00,,,0.00,954.00,VWS V14.01,2013-05-14 18:56:00,
2013-05-14 13:57:00,85.5,59.8,29.77,West,278,13.2,13.2,42,0.00,,,0.00,954.00,VWS V14.01,2013-05-14 18:57:00,
2013-05-14 13:59:00,85.8,58.7,29.77,WSW,239,11.0,11.0,40,0.00,,,0.00,949.00,VWS V14.01,2013-05-14 18:59:00,
2013-05-14 14:01:00,85.8,59.4,29.77,West,261,11.0,14.3,41,0.00,,,0.00,951.00,VWS V14.01,2013-05-14 19:01:00,
2013-05-14 14:02:00,85.9,58.8,29.77,WSW,257,14.3,14.3,40,0.00,,,0.00,951.00,VWS V14.01,2013-05-14 19:02:00,
2013-05-14 14:03:00,85.8,58.0,29.77,WSW,246,8.8,9.9,39,0.00,,,0.00,939.00,VWS V14.01,2013-05-14 19:03:00,
2013-05-14 14:04:00,85.7,57.9,29.77,WSW,256,7.7,12.1,39,0.00,,,0.00,937.00,VWS V14.01,2013-05-14 19:04:00,
2013-05-14 14:07:00,86.2,59.8,29.77,WNW,299,9.9,14.3,41,0.00,,,0.00,940.00,VWS V14.01,2013-05-14 19:07:00,
2013-05-14 14:09:00,86.5,60.0,29.77,WNW,287,6.6,9.9,41,0.00,,,0.00,942.00,VWS V14.01,2013-05-14 19:09:00,
2013-05-14 14:12:00,86.5,57.9,29.77,WSW,250,7.7,14.3,38,0.00,,,0.00,932.00,VWS V14.01,2013-05-14 19:12:00,
2013-05-14 14:13:00,86.5,57.9,29.77,West,276,6.6,7.7,38,0.00,,,0.00,928.00,VWS V14.01,2013-05-14 19:13:00,
2013-05-14 14:14:00,86.5,58.6,29.77,WSW,255,8.8,8.8,39,0.00,,,0.00,930.00,VWS V14.01,2013-05-14 19:14:00,
2013-05-14 14:16:00,86.9,59.0,29.77,West,272,14.3,15.4,39,0.00,,,0.00,942.00,VWS V14.01,2013-05-14 19:16:00,
2013-05-14 14:18:00,87.0,57.6,29.77,West,264,6.6,12.1,37,0.00,,,0.00,928.00,VWS V14.01,2013-05-14 19:18:00,
2013-05-14 14:19:00,87.1,60.6,29.77,WNW,290,11.0,11.0,41,0.00,,,0.00,930.00,VWS V14.01,2013-05-14 19:19:00,
2013-05-14 14:22:00,87.2,57.8,29.77,WNW,289,6.6,8.8,37,0.00,,,0.00,926.00,VWS V14.01,2013-05-14 19:22:00,
2013-05-14 14:23:00,87.1,58.4,29.76,WSW,239,5.5,6.6,38,0.00,,,0.00,919.00,VWS V14.01,2013-05-14 19:23:00,
2013-05-14 14:24:00,87.1,57.7,29.77,West,259,15.4,15.4,37,0.00,,,0.00,921.00,VWS V14.01,2013-05-14 19:24:00,
2013-05-14 14:25:00,87.2,57.8,29.77,WSW,258,14.3,15.4,37,0.00,,,0.00,921.00,VWS V14.01,2013-05-14 19:25:00,
2013-05-14 14:27:00,87.3,58.6,29.77,NW,304,7.7,11.0,38,0.00,,,0.00,919.00,VWS V14.01,2013-05-14 19:27:00,
2013-05-14 14:28:00,87.2,60.0,29.77,West,277,5.5,8.8,40,0.00,,,0.00,916.00,VWS V14.01,2013-05-14 19:28:00,
2013-05-14 14:30:00,87.0,57.6,29.76,West,266,15.4,15.4,37,0.00,,,0.00,912.00,VWS V14.01,2013-05-14 19:30:00,
2013-05-14 14:32:00,86.9,57.5,29.76,WNW,282,12.1,13.2,37,0.00,,,0.00,902.00,VWS V14.01,2013-05-14 19:32:00,
2013-05-14 14:33:00,86.8,58.2,29.76,WNW,285,7.7,8.8,38,0.00,,,0.00,900.00,VWS V14.01,2013-05-14 19:33:00,
2013-05-14 14:35:00,87.1,58.4,29.76,WNW,287,8.8,12.1,38,0.00,,,0.00,905.00,VWS V14.01,2013-05-14 19:35:00,
2013-05-14 14:36:00,87.2,58.5,29.76,NW,309,12.1,12.1,38,0.00,,,0.00,902.00,VWS V14.01,2013-05-14 19:36:00,
2013-05-14 14:38:00,87.3,59.3,29.76,WNW,301,3.3,6.6,39,0.00,,,0.00,896.00,VWS V14.01,2013-05-14 19:38:00,
2013-05-14 14:40:00,87.4,60.8,29.76,West,259,5.5,7.7,41,0.00,,,0.00,896.00,VWS V14.01,2013-05-14 19:40:00,
2013-05-14 14:41:00,87.4,58.7,29.76,WNW,289,6.6,8.8,38,0.00,,,0.00,900.00,VWS V14.01,2013-05-14 19:41:00,
2013-05-14 14:43:00,87.5,57.3,29.76,NW,307,8.8,9.9,36,0.00,,,0.00,888.00,VWS V14.01,2013-05-14 19:43:00,
2013-05-14 14:46:00,87.4,58.7,29.76,WNW,296,12.1,12.1,38,0.00,,,0.00,886.00,VWS V14.01,2013-05-14 19:46:00,
2013-05-14 14:48:00,87.4,58.7,29.76,WNW,300,4.4,5.5,38,0.00,,,0.00,886.00,VWS V14.01,2013-05-14 19:48:00,
2013-05-14 14:52:00,87.5,59.5,29.76,West,277,6.6,6.6,39,0.00,,,0.00,886.00,VWS V14.01,2013-05-14 19:52:00,
2013-05-14 14:53:00,87.8,61.9,29.76,NNW,338,11.0,11.0,42,0.00,,,0.00,884.00,VWS V14.01,2013-05-14 19:53:00,
2013-05-14 14:54:00,88.1,59.3,29.76,WNW,299,7.7,13.2,38,0.00,,,0.00,888.00,VWS V14.01,2013-05-14 19:54:00,
2013-05-14 14:57:00,88.1,59.3,29.76,WNW,287,4.4,11.0,38,0.00,,,0.00,874.00,VWS V14.01,2013-05-14 19:57:00,
2013-05-14 14:58:00,87.9,56.9,29.76,WNW,284,8.8,11.0,35,0.00,,,0.00,868.00,VWS V14.01,2013-05-14 19:58:00,
2013-05-14 14:59:00,87.9,58.4,29.76,NW,326,7.7,8.8,37,0.00,,,0.00,868.00,VWS V14.01,2013-05-14 19:59:00,
2013-05-14 15:02:00,88.2,59.4,29.75,West,266,7.7,11.0,38,0.00,,,0.00,860.00,VWS V14.01,2013-05-14 20:02:00,
2013-05-14 15:04:00,88.6,59.8,29.76,WNW,292,7.7,9.9,38,0.00,,,0.00,865.00,VWS V14.01,2013-05-14 20:04:00,
2013-05-14 15:05:00,88.6,59.8,29.75,NW,304,4.4,6.6,38,0.00,,,0.00,863.00,VWS V14.01,2013-05-14 20:05:00,
2013-05-14 15:06:00,88.5,58.2,29.75,WNW,284,5.5,5.5,36,0.00,,,0.00,858.00,VWS V14.01,2013-05-14 20:06:00,
2013-05-14 15:07:00,88.0,56.9,29.75,WNW,286,6.6,6.6,35,0.00,,,0.00,863.00,VWS V14.01,2013-05-14 20:07:00,
2013-05-14 15:10:00,88.1,57.0,29.75,WNW,287,9.9,13.2,35,0.00,,,0.00,858.00,VWS V14.01,2013-05-14 20:10:00,
2013-05-14 15:11:00,88.1,56.2,29.75,WNW,290,8.8,11.0,34,0.00,,,0.00,856.00,VWS V14.01,2013-05-14 20:11:00,
2013-05-14 15:13:00,87.9,56.9,29.75,WNW,292,8.8,8.8,35,0.00,,,0.00,842.00,VWS V14.01,2013-05-14 20:13:00,
2013-05-14 15:15:00,88.1,59.3,29.75,WSW,257,7.7,7.7,38,0.00,,,0.00,837.00,VWS V14.01,2013-05-14 20:15:00,
2013-05-14 15:17:00,88.4,57.3,29.75,WNW,301,11.0,13.2,35,0.00,,,0.00,840.00,VWS V14.01,2013-05-14 20:17:00,
2013-05-14 15:18:00,88.7,58.3,29.75,WNW,302,6.6,9.9,36,0.00,,,0.00,842.00,VWS V14.01,2013-05-14 20:18:00,
2013-05-14 15:20:00,88.9,58.5,29.75,WSW,256,12.1,12.1,36,0.00,,,0.00,835.00,VWS V14.01,2013-05-14 20:20:00,
2013-05-14 15:21:00,88.9,58.5,29.75,West,268,12.1,14.3,36,0.00,,,0.00,830.00,VWS V14.01,2013-05-14 20:21:00,
2013-05-14 15:22:00,88.9,56.1,29.75,West,265,8.8,8.8,33,0.00,,,0.00,830.00,VWS V14.01,2013-05-14 20:22:00,
2013-05-14 15:24:00,88.5,57.4,29.75,West,268,13.2,13.2,35,0.00,,,0.00,824.00,VWS V14.01,2013-05-14 20:24:00,
2013-05-14 15:26:00,88.5,55.8,29.75,West,273,9.9,11.0,33,0.00,,,0.00,821.00,VWS V14.01,2013-05-14 20:26:00,
2013-05-14 15:28:00,88.4,56.5,29.75,WNW,283,7.7,7.7,34,0.00,,,0.00,809.00,VWS V14.01,2013-05-14 20:28:00,
2013-05-14 15:29:00,88.4,56.5,29.76,NNW,337,9.9,11.0,34,0.00,,,0.00,807.00,VWS V14.01,2013-05-14 20:29:00,
2013-05-14 15:31:00,88.5,57.4,29.75,WNW,284,9.9,9.9,35,0.00,,,0.00,805.00,VWS V14.01,2013-05-14 20:31:00,
2013-05-14 15:33:00,88.7,59.1,29.75,West,268,8.8,12.1,37,0.00,,,0.00,805.00,VWS V14.01,2013-05-14 20:33:00,
2013-05-14 15:34:00,88.7,56.8,29.75,WSW,249,7.7,11.0,34,0.00,,,0.00,802.00,VWS V14.01,2013-05-14 20:34:00,
2013-05-14 15:35:00,88.7,56.8,29.75,WSW,247,7.7,9.9,34,0.00,,,0.00,802.00,VWS V14.01,2013-05-14 20:35:00,
2013-05-14 15:38:00,89.0,55.3,29.75,WNW,295,8.8,8.8,32,0.00,,,0.00,795.00,VWS V14.01,2013-05-14 20:38:00,
2013-05-14 15:39:00,89.0,57.0,29.75,West,278,8.8,13.2,34,0.00,,,0.00,791.00,VWS V14.01,2013-05-14 20:39:00,
2013-05-14 15:41:00,88.8,56.8,29.75,NW,309,9.9,9.9,34,0.00,,,0.00,786.00,VWS V14.01,2013-05-14 20:41:00,
2013-05-14 15:42:00,88.8,56.8,29.75,WNW,298,9.9,11.0,34,0.00,,,0.00,786.00,VWS V14.01,2013-05-14 20:42:00,
2013-05-14 15:43:00,88.7,55.9,29.75,WNW,287,7.7,11.0,33,0.00,,,0.00,773.00,VWS V14.01,2013-05-14 20:43:00,
2013-05-14 15:44:00,88.6,55.8,29.75,WNW,287,4.4,5.5,33,0.00,,,0.00,773.00,VWS V14.01,2013-05-14 20:44:00,
2013-05-14 15:46:00,88.3,56.4,29.75,WNW,285,6.6,7.7,34,0.00,,,0.00,770.00,VWS V14.01,2013-05-14 20:46:00,
2013-05-14 15:48:00,88.4,54.8,29.75,West,269,9.9,9.9,32,0.00,,,0.00,765.00,VWS V14.01,2013-05-14 20:48:00,
2013-05-14 15:49:00,88.5,56.6,29.75,NW,324,11.0,11.0,34,0.00,,,0.00,759.00,VWS V14.01,2013-05-14 20:49:00,
2013-05-14 15:51:00,88.5,55.8,29.75,NW,314,5.5,8.8,33,0.00,,,0.00,752.00,VWS V14.01,2013-05-14 20:51:00,
2013-05-14 15:54:00,88.7,58.3,29.75,NW,309,3.3,5.5,36,0.00,,,0.00,745.00,VWS V14.01,2013-05-14 20:54:00,
2013-05-14 15:55:00,89.0,55.3,29.75,NW,318,7.7,8.8,32,0.00,,,0.00,740.00,VWS V14.01,2013-05-14 20:55:00,
2013-05-14 15:56:00,89.0,56.2,29.75,West,268,6.6,6.6,33,0.00,,,0.00,740.00,VWS V14.01,2013-05-14 20:56:00,
2013-05-14 15:58:00,89.2,55.5,29.75,NW,308,11.0,13.2,32,0.00,,,0.00,737.00,VWS V14.01,2013-05-14 20:58:00,
2013-05-14 15:59:00,89.2,55.5,29.75,WNW,295,8.8,11.0,32,0.00,,,0.00,737.00,VWS V14.01,2013-05-14 20:59:00,
2013-05-14 16:01:00,89.2,55.5,29.75,NW,304,14.3,14.3,32,0.00,,,0.00,729.00,VWS V14.01,2013-05-14 21:01:00,
2013-05-14 16:02:00,89.1,56.3,29.75,West,274,4.4,9.9,33,0.00,,,0.00,724.00,VWS V14.01,2013-05-14 21:02:00,
2013-05-14 16:04:00,88.9,55.3,29.75,West,280,11.0,11.0,32,0.00,,,0.00,714.00,VWS V14.01,2013-05-14 21:04:00,
2013-05-14 16:06:00,88.9,56.1,29.75,NW,307,7.7,8.8,33,0.00,,,0.00,708.00,VWS V14.01,2013-05-14 21:06:00,
2013-05-14 16:07:00,89.0,57.0,29.75,WNW,292,8.8,9.9,34,0.00,,,0.00,703.00,VWS V14.01,2013-05-14 21:07:00,
2013-05-14 16:11:00,89.2,53.8,29.75,West,276,5.5,5.5,30,0.00,,,0.00,694.00,VWS V14.01,2013-05-14 21:11:00,
2013-05-14 16:12:00,89.2,54.6,29.75,WNW,290,8.8,14.3,31,0.00,,,0.00,691.00,VWS V14.01,2013-05-14 21:12:00,
2013-05-14 16:17:00,89.2,53.8,29.75,West,271,8.8,8.8,30,0.00,,,0.00,677.00,VWS V14.01,2013-05-14 21:17:00,
2013-05-14 16:18:00,89.2,53.8,29.75,WSW,240,5.5,7.7,30,0.00,,,0.00,677.00,VWS V14.01,2013-05-14 21:18:00,
2013-05-14 16:22:00,89.4,56.5,29.75,WSW,251,5.5,6.6,33,0.00,,,0.00,670.00,VWS V14.01,2013-05-14 21:22:00,
2013-05-14 16:23:00,89.5,56.6,29.75,West,275,4.4,5.5,33,0.00,,,0.00,666.00,VWS V14.01,2013-05-14 21:23:00,
2013-05-14 16:24:00,89.6,55.0,29.75,West,280,3.3,7.7,31,0.00,,,0.00,659.00,VWS V14.01,2013-05-14 21:24:00,
2013-05-14 16:27:00,89.7,55.1,29.75,West,263,6.6,9.9,31,0.00,,,0.00,650.00,VWS V14.01,2013-05-14 21:27:00,
2013-05-14 16:28:00,89.7,55.1,29.75,NW,305,5.5,8.8,31,0.00,,,0.00,650.00,VWS V14.01,2013-05-14 21:28:00,
2013-05-14 16:29:00,89.8,54.3,29.75,NW,308,6.6,7.7,30,0.00,,,0.00,649.00,VWS V14.01,2013-05-14 21:29:00,
2013-05-14 16:32:00,89.6,53.2,29.75,WNW,299,3.3,9.9,29,0.00,,,0.00,635.00,VWS V14.01,2013-05-14 21:32:00,
2013-05-14 16:33:00,89.6,54.1,29.75,WNW,302,5.5,8.8,30,0.00,,,0.00,635.00,VWS V14.01,2013-05-14 21:33:00,
2013-05-14 16:34:00,89.6,54.1,29.75,NW,312,8.8,8.8,30,0.00,,,0.00,629.00,VWS V14.01,2013-05-14 21:34:00,
2013-05-14 16:37:00,89.6,53.2,29.75,West,280,6.6,7.7,29,0.00,,,0.00,621.00,VWS V14.01,2013-05-14 21:37:00,
2013-05-14 16:38:00,89.6,52.2,29.75,West,280,5.5,7.7,28,0.00,,,0.00,619.00,VWS V14.01,2013-05-14 21:38:00,
2013-05-14 16:39:00,89.6,52.2,29.75,West,276,4.4,5.5,28,0.00,,,0.00,615.00,VWS V14.01,2013-05-14 21:39:00,
2013-05-14 16:40:00,89.6,55.9,29.75,NW,305,6.6,6.6,32,0.00,,,0.00,610.00,VWS V14.01,2013-05-14 21:40:00,
2013-05-14 16:42:00,89.6,56.7,29.75,West,272,6.6,6.6,33,0.00,,,0.00,598.00,VWS V14.01,2013-05-14 21:42:00,
2013-05-14 16:44:00,89.7,54.2,29.75,West,262,3.3,6.6,30,0.00,,,0.00,596.00,VWS V14.01,2013-05-14 21:44:00,
2013-05-14 16:45:00,89.8,54.3,29.75,West,278,4.4,6.6,30,0.00,,,0.00,592.00,VWS V14.01,2013-05-14 21:45:00,
2013-05-14 16:49:00,90.1,54.5,29.75,NW,309,6.6,6.6,30,0.00,,,0.00,580.00,VWS V14.01,2013-05-14 21:49:00,
2013-05-14 16:50:00,90.1,56.3,29.75,West,280,4.4,4.4,32,0.00,,,0.00,578.00,VWS V14.01,2013-05-14 21:50:00,
2013-05-14 16:54:00,90.2,53.7,29.75,WNW,302,6.6,6.6,29,0.00,,,0.00,561.00,VWS V14.01,2013-05-14 21:54:00,
2013-05-14 16:56:00,90.1,53.6,29.75,West,267,4.4,7.7,29,0.00,,,0.00,554.00,VWS V14.01,2013-05-14 21:56:00,
2013-05-14 16:58:00,90.2,52.7,29.75,WSW,251,7.7,11.0,28,0.00,,,0.00,548.00,VWS V14.01,2013-05-14 21:58:00,
2013-05-14 17:00:00,90.2,51.7,29.75,WSW,249,6.6,9.9,27,0.00,,,0.00,547.00,VWS V14.01,2013-05-14 22:00:00,
2013-05-14 17:01:00,90.1,52.6,29.75,SW,228,2.2,2.2,28,0.00,,,0.00,541.00,VWS V14.01,2013-05-14 22:01:00,
2013-05-14 17:02:00,90.1,52.6,29.75,SW,228,4.4,4.4,28,0.00,,,0.00,541.00,VWS V14.01,2013-05-14 22:02:00,
2013-05-14 17:04:00,90.3,52.8,29.75,WSW,238,7.7,7.7,28,0.00,,,0.00,534.00,VWS V14.01,2013-05-14 22:04:00,
2013-05-14 17:05:00,90.4,52.9,29.75,SW,222,3.3,5.5,28,0.00,,,0.00,531.00,VWS V14.01,2013-05-14 22:05:00,
2013-05-14 17:07:00,90.3,55.6,29.75,NW,321,6.6,8.8,31,0.00,,,0.00,522.00,VWS V14.01,2013-05-14 22:07:00,
2013-05-14 17:08:00,90.2,53.7,29.75,WNW,299,6.6,7.7,29,0.00,,,0.00,520.00,VWS V14.01,2013-05-14 22:08:00,
2013-05-14 17:10:00,90.1,54.5,29.74,WNW,295,5.5,8.8,30,0.00,,,0.00,519.00,VWS V14.01,2013-05-14 22:10:00,
2013-05-14 17:12:00,90.0,53.5,29.74,West,280,1.1,5.5,29,0.00,,,0.00,510.00,VWS V14.01,2013-05-14 22:12:00,
2013-05-14 17:13:00,90.0,51.6,29.74,West,280,4.4,4.4,27,0.00,,,0.00,510.00,VWS V14.01,2013-05-14 22:13:00,
2013-05-14 17:15:00,90.1,52.6,29.74,WSW,258,4.4,5.5,28,0.00,,,0.00,499.00,VWS V14.01,2013-05-14 22:15:00,
2013-05-14 17:16:00,90.2,54.6,29.74,West,278,3.3,5.5,30,0.00,,,0.00,492.00,VWS V14.01,2013-05-14 22:16:00,
2013-05-14 17:17:00,90.4,53.8,29.74,West,275,4.4,6.6,29,0.00,,,0.00,489.00,VWS V14.01,2013-05-14 22:17:00,
2013-05-14 17:18:00,90.4,53.8,29.74,West,270,2.2,4.4,29,0.00,,,0.00,487.00,VWS V14.01,2013-05-14 22:18:00,
2013-05-14 17:20:00,90.3,50.8,29.74,West,260,2.2,3.3,26,0.00,,,0.00,475.00,VWS V14.01,2013-05-14 22:20:00,
2013-05-14 17:22:00,90.2,50.7,29.74,WNW,286,4.4,8.8,26,0.00,,,0.00,473.00,VWS V14.01,2013-05-14 22:22:00,
2013-05-14 17:23:00,90.2,50.7,29.74,WNW,287,1.1,4.4,26,0.00,,,0.00,468.00,VWS V14.01,2013-05-14 22:23:00,
2013-05-14 17:24:00,90.1,51.7,29.74,West,275,3.3,5.5,27,0.00,,,0.00,466.00,VWS V14.01,2013-05-14 22:24:00,
2013-05-14 17:25:00,90.1,52.6,29.74,NW,308,11.0,11.0,28,0.00,,,0.00,461.00,VWS V14.01,2013-05-14 22:25:00,
2013-05-14 17:27:00,90.1,53.6,29.74,WNW,289,3.3,7.7,29,0.00,,,0.00,455.00,VWS V14.01,2013-05-14 22:27:00,
2013-05-14 17:28:00,90.1,52.6,29.74,West,264,8.8,8.8,28,0.00,,,0.00,455.00,VWS V14.01,2013-05-14 22:28:00,
2013-05-14 17:29:00,90.0,52.5,29.74,WSW,257,4.4,7.7,28,0.00,,,0.00,450.00,VWS V14.01,2013-05-14 22:29:00,
2013-05-14 17:30:00,89.9,52.5,29.74,West,272,7.7,7.7,28,0.00,,,0.00,448.00,VWS V14.01,2013-05-14 22:30:00,
2013-05-14 17:31:00,90.0,53.5,29.74,West,274,5.5,6.6,29,0.00,,,0.00,445.00,VWS V14.01,2013-05-14 22:31:00,
2013-05-14 17:32:00,89.9,52.5,29.73,WSW,256,4.4,6.6,28,0.00,,,0.00,427.00,VWS V14.01,2013-05-14 22:32:00,
2013-05-14 17:33:00,89.8,51.4,29.73,WSW,241,4.4,5.5,27,0.00,,,0.00,438.00,VWS V14.01,2013-05-14 22:33:00,
2013-05-14 17:36:00,89.9,51.5,29.73,WSW,257,3.3,4.4,27,0.00,,,0.00,427.00,VWS V14.01,2013-05-14 22:36:00,
2013-05-14 17:37:00,89.9,50.5,29.73,WSW,250,4.4,4.4,26,0.00,,,0.00,424.00,VWS V14.01,2013-05-14 22:37:00,
2013-05-14 17:38:00,90.0,51.6,29.73,WSW,251,3.3,3.3,27,0.00,,,0.00,418.00,VWS V14.01,2013-05-14 22:38:00,
2013-05-14 17:39:00,90.1,50.6,29.73,WSW,253,2.2,4.4,26,0.00,,,0.00,417.00,VWS V14.01,2013-05-14 22:39:00,
2013-05-14 17:41:00,90.1,51.7,29.73,WNW,293,4.4,4.4,27,0.00,,,0.00,410.00,VWS V14.01,2013-05-14 22:41:00,
2013-05-14 17:42:00,90.1,51.7,29.73,West,266,4.4,4.4,27,0.00,,,0.00,408.00,VWS V14.01,2013-05-14 22:42:00,
2013-05-14 17:44:00,90.0,50.5,29.73,West,279,3.3,4.4,26,0.00,,,0.00,403.00,VWS V14.01,2013-05-14 22:44:00,
2013-05-14 17:46:00,90.0,51.6,29.73,West,268,6.6,6.6,27,0.00,,,0.00,394.00,VWS V14.01,2013-05-14 22:46:00,
2013-05-14 17:47:00,90.0,51.6,29.73,West,268,4.4,6.6,27,0.00,,,0.00,392.00,VWS V14.01,2013-05-14 22:47:00,
2013-05-14 17:48:00,90.0,51.6,29.73,West,268,2.2,4.4,27,0.00,,,0.00,392.00,VWS V14.01,2013-05-14 22:48:00,
2013-05-14 17:50:00,89.9,51.5,29.73,WSW,249,4.4,5.5,27,0.00,,,0.00,381.00,VWS V14.01,2013-05-14 22:50:00,
2013-05-14 17:52:00,89.8,51.4,29.73,WNW,297,2.2,2.2,27,0.00,,,0.00,371.00,VWS V14.01,2013-05-14 22:52:00,
2013-05-14 17:53:00,89.7,51.3,29.73,WNW,287,3.3,4.4,27,0.00,,,0.00,369.00,VWS V14.01,2013-05-14 22:53:00,
2013-05-14 17:56:00,89.6,53.2,29.73,WNW,283,2.2,2.2,29,0.00,,,0.00,362.00,VWS V14.01,2013-05-14 22:56:00,
2013-05-14 17:57:00,89.7,51.3,29.72,WNW,283,2.2,2.2,27,0.00,,,0.00,357.00,VWS V14.01,2013-05-14 22:57:00,
2013-05-14 17:58:00,89.8,52.4,29.72,WNW,283,2.2,2.2,28,0.00,,,0.00,353.00,VWS V14.01,2013-05-14 22:58:00,
2013-05-14 17:59:00,89.8,50.4,29.72,WNW,283,3.3,3.3,26,0.00,,,0.00,350.00,VWS V14.01,2013-05-14 22:59:00,
2013-05-14 18:02:00,90.1,51.7,29.72,WNW,283,1.1,2.2,27,0.00,,,0.00,336.00,VWS V14.01,2013-05-14 23:02:00,
2013-05-14 18:03:00,90.1,51.7,29.72,WNW,283,2.2,3.3,27,0.00,,,0.00,336.00,VWS V14.01,2013-05-14 23:03:00,
2013-05-14 18:04:00,90.0,51.6,29.72,WNW,283,1.1,3.3,27,0.00,,,0.00,262.00,VWS V14.01,2013-05-14 23:04:00,
2013-05-14 18:07:00,89.8,51.4,29.72,WNW,283,2.2,3.3,27,0.00,,,0.00,318.00,VWS V14.01,2013-05-14 23:07:00,
2013-05-14 18:09:00,89.9,51.5,29.72,WNW,283,0.0,1.1,27,0.00,,,0.00,304.00,VWS V14.01,2013-05-14 23:09:00,
2013-05-14 18:10:00,89.8,50.4,29.72,WNW,283,2.2,3.3,26,0.00,,,0.00,225.00,VWS V14.01,2013-05-14 23:10:00,
2013-05-14 18:12:00,89.6,52.2,29.72,West,278,2.2,2.2,28,0.00,,,0.00,292.00,VWS V14.01,2013-05-14 23:12:00,
2013-05-14 18:14:00,89.6,52.2,29.71,West,278,1.1,2.2,28,0.00,,,0.00,295.00,VWS V14.01,2013-05-14 23:14:00,
2013-05-14 18:15:00,89.5,51.1,29.71,West,278,1.1,1.1,27,0.00,,,0.00,292.00,VWS V14.01,2013-05-14 23:15:00,
2013-05-14 18:18:00,89.5,52.1,29.71,West,278,2.2,2.2,28,0.00,,,0.00,192.00,VWS V14.01,2013-05-14 23:18:00,
2013-05-14 18:19:00,89.4,56.5,29.71,West,278,1.1,1.1,33,0.00,,,0.00,255.00,VWS V14.01,2013-05-14 23:19:00,
2013-05-14 18:20:00,89.3,54.7,29.71,SW,227,1.1,2.2,31,0.00,,,0.00,258.00,VWS V14.01,2013-05-14 23:20:00,
2013-05-14 18:21:00,89.2,52.8,29.71,SW,227,1.1,2.2,29,0.00,,,0.00,262.00,VWS V14.01,2013-05-14 23:21:00,
2013-05-14 18:22:00,89.2,53.8,29.71,SE,145,4.4,4.4,30,0.00,,,0.00,229.00,VWS V14.01,2013-05-14 23:22:00,
2013-05-14 18:23:00,89.1,51.8,29.71,South,172,6.6,6.6,28,0.00,,,0.00,162.00,VWS V14.01,2013-05-14 23:23:00,
2013-05-14 18:25:00,89.0,53.6,29.71,SSE,157,3.3,7.7,30,0.00,,,0.00,56.00,VWS V14.01,2013-05-14 23:25:00,
2013-05-14 18:26:00,89.0,52.7,29.71,SSE,161,1.1,5.5,29,0.00,,,0.00,58.00,VWS V14.01,2013-05-14 23:26:00,
2013-05-14 18:27:00,89.0,51.7,29.71,SSE,165,3.3,4.4,28,0.00,,,0.00,88.00,VWS V14.01,2013-05-14 23:27:00,
2013-05-14 18:29:00,88.8,54.3,29.70,South,191,5.5,6.6,31,0.00,,,0.00,104.00,VWS V14.01,2013-05-14 23:29:00,
2013-05-14 18:30:00,88.7,51.4,29.71,South,170,2.2,3.3,28,0.00,,,0.00,105.00,VWS V14.01,2013-05-14 23:30:00,
2013-05-14 18:31:00,88.7,52.4,29.70,South,170,2.2,2.2,29,0.00,,,0.00,172.00,VWS V14.01,2013-05-14 23:31:00,
2013-05-14 18:32:00,88.5,54.9,29.70,South,171,1.1,3.3,32,0.00,,,0.00,221.00,VWS V14.01,2013-05-14 23:32:00,
2013-05-14 18:34:00,88.1,55.4,29.70,South,171,2.2,3.3,33,0.00,,,0.00,230.00,VWS V14.01,2013-05-14 23:34:00,
2013-05-14 18:36:00,87.9,52.6,29.70,SSE,168,3.3,4.4,30,0.00,,,0.00,223.00,VWS V14.01,2013-05-14 23:36:00,
2013-05-14 18:39:00,88.2,52.0,29.70,South,173,5.5,5.5,29,0.00,,,0.00,213.00,VWS V14.01,2013-05-14 23:39:00,
2013-05-14 18:41:00,88.5,54.0,29.70,South,175,2.2,4.4,31,0.00,,,0.00,206.00,VWS V14.01,2013-05-14 23:41:00,
2013-05-14 18:43:00,88.5,52.2,29.70,South,175,2.2,3.3,29,0.00,,,0.00,197.00,VWS V14.01,2013-05-14 23:43:00,
2013-05-14 18:44:00,88.4,53.1,29.70,South,187,2.2,3.3,30,0.00,,,0.00,151.00,VWS V14.01,2013-05-14 23:44:00,
2013-05-14 18:45:00,88.3,56.4,29.70,South,185,2.2,3.3,34,0.00,,,0.00,132.00,VWS V14.01,2013-05-14 23:45:00,
2013-05-14 18:46:00,87.9,54.4,29.70,South,172,5.5,5.5,32,0.00,,,0.00,120.00,VWS V14.01,2013-05-14 23:46:00,
2013-05-14 18:48:00,87.6,54.1,29.70,South,172,0.0,4.4,32,0.00,,,0.00,149.00,VWS V14.01,2013-05-14 23:48:00,
2013-05-14 18:50:00,87.2,55.4,29.70,South,172,2.2,3.3,34,0.00,,,0.00,111.00,VWS V14.01,2013-05-14 23:50:00,
2013-05-14 18:51:00,87.0,55.3,29.69,South,172,2.2,2.2,34,0.00,,,0.00,90.00,VWS V14.01,2013-05-14 23:51:00,
2013-05-14 18:52:00,86.9,55.2,29.69,South,172,1.1,3.3,34,0.00,,,0.00,79.00,VWS V14.01,2013-05-14 23:52:00,
2013-05-14 18:53:00,86.5,55.6,29.69,SSE,157,3.3,3.3,35,0.00,,,0.00,76.00,VWS V14.01,2013-05-14 23:53:00,
2013-05-14 18:56:00,86.4,53.9,29.69,SSE,149,4.4,5.5,33,0.00,,,0.00,51.00,VWS V14.01,2013-05-14 23:56:00,
2013-05-14 18:57:00,86.4,53.9,29.69,SSE,162,3.3,4.4,33,0.00,,,0.00,53.00,VWS V14.01,2013-05-14 23:57:00,
2013-05-14 18:58:00,86.3,53.8,29.69,SSE,161,4.4,4.4,33,0.00,,,0.00,49.00,VWS V14.01,2013-05-14 23:58:00,
2013-05-14 18:59:00,86.1,55.3,29.69,SSE,159,1.1,5.5,35,0.00,,,0.00,49.00,VWS V14.01,2013-05-14 23:59:00,
2013-05-14 19:01:00,85.8,53.4,29.69,SSE,163,3.3,6.6,33,0.00,,,0.00,42.00,VWS V14.01,2013-05-15 00:01:00,
2013-05-14 19:02:00,85.7,54.9,29.69,SSE,167,3.3,6.6,35,0.00,,,0.00,39.00,VWS V14.01,2013-05-15 00:02:00,
2013-05-14 19:03:00,85.6,54.8,29.69,SSE,164,3.3,4.4,35,0.00,,,0.00,39.00,VWS V14.01,2013-05-15 00:03:00,
2013-05-14 19:05:00,85.4,53.9,29.69,South,184,3.3,4.4,34,0.00,,,0.00,39.00,VWS V14.01,2013-05-15 00:05:00,
2013-05-14 19:06:00,85.4,53.9,29.69,SSE,162,2.2,3.3,34,0.00,,,0.00,39.00,VWS V14.01,2013-05-15 00:06:00,
2013-05-14 19:08:00,85.2,54.5,29.69,SSE,164,5.5,5.5,35,0.00,,,0.00,35.00,VWS V14.01,2013-05-15 00:08:00,
2013-05-14 19:09:00,85.2,54.5,29.69,SSE,164,1.1,2.2,35,0.00,,,0.00,35.00,VWS V14.01,2013-05-15 00:09:00,
2013-05-14 19:10:00,85.1,54.4,29.69,SSE,165,2.2,4.4,35,0.00,,,0.00,35.00,VWS V14.01,2013-05-15 00:10:00,
2013-05-14 19:12:00,85.0,54.3,29.69,South,186,2.2,7.7,35,0.00,,,0.00,33.00,VWS V14.01,2013-05-15 00:12:00,
2013-05-14 19:14:00,84.9,55.0,29.68,South,187,1.1,2.2,36,0.00,,,0.00,33.00,VWS V14.01,2013-05-15 00:14:00,
2013-05-14 19:15:00,84.7,54.0,29.68,South,179,2.2,3.3,35,0.00,,,0.00,30.00,VWS V14.01,2013-05-15 00:15:00,
2013-05-14 19:17:00,84.7,54.0,29.68,South,191,3.3,7.7,35,0.00,,,0.00,28.00,VWS V14.01,2013-05-15 00:17:00,
2013-05-14 19:19:00,84.7,54.0,29.68,South,179,1.1,4.4,35,0.00,,,0.00,28.00,VWS V14.01,2013-05-15 00:19:00,
2013-05-14 19:21:00,84.5,53.9,29.68,SSE,168,3.3,3.3,35,0.00,,,0.00,28.00,VWS V14.01,2013-05-15 00:21:00,
2013-05-14 19:22:00,84.3,55.2,29.68,South,185,1.1,4.4,37,0.00,,,0.00,26.00,VWS V14.01,2013-05-15 00:22:00,
2013-05-14 19:23:00,84.3,54.5,29.68,SSE,165,4.4,4.4,36,0.00,,,0.00,25.00,VWS V14.01,2013-05-15 00:23:00,
2013-05-14 19:24:00,84.2,54.4,29.68,SSE,166,1.1,4.4,36,0.00,,,0.00,25.00,VWS V14.01,2013-05-15 00:24:00,
2013-05-14 19:25:00,84.3,55.2,29.68,South,172,1.1,4.4,37,0.00,,,0.00,23.00,VWS V14.01,2013-05-15 00:25:00,
2013-05-14 19:29:00,83.7,54.7,29.68,South,173,2.2,3.3,37,0.00,,,0.00,19.00,VWS V14.01,2013-05-15 00:29:00,
2013-05-14 19:32:00,83.4,54.4,29.69,South,181,3.3,5.5,37,0.00,,,0.00,16.00,VWS V14.01,2013-05-15 00:32:00,
2013-05-14 19:34:00,83.4,54.4,29.69,South,171,5.5,5.5,37,0.00,,,0.00,14.00,VWS V14.01,2013-05-15 00:34:00,
2013-05-14 19:35:00,83.4,53.7,29.69,South,181,4.4,6.6,36,0.00,,,0.00,14.00,VWS V14.01,2013-05-15 00:35:00,
2013-05-14 19:38:00,83.1,54.2,29.68,South,187,1.1,4.4,37,0.00,,,0.00,14.00,VWS V14.01,2013-05-15 00:38:00,
2013-05-14 19:39:00,83.1,54.2,29.68,South,170,4.4,6.6,37,0.00,,,0.00,14.00,VWS V14.01,2013-05-15 00:39:00,
2013-05-14 19:40:00,83.0,54.1,29.68,South,185,4.4,6.6,37,0.00,,,0.00,12.00,VWS V14.01,2013-05-15 00:40:00,
2013-05-14 19:41:00,83.0,54.1,29.68,SSE,155,4.4,4.4,37,0.00,,,0.00,12.00,VWS V14.01,2013-05-15 00:41:00,
2013-05-14 19:43:00,82.8,55.3,29.68,SSE,166,4.4,4.4,39,0.00,,,0.00,11.00,VWS V14.01,2013-05-15 00:43:00,
2013-05-14 19:45:00,82.7,54.5,29.68,South,170,4.4,5.5,38,0.00,,,0.00,11.00,VWS V14.01,2013-05-15 00:45:00,
2013-05-14 19:46:00,82.8,54.6,29.68,South,189,5.5,7.7,38,0.00,,,0.00,11.00,VWS V14.01,2013-05-15 00:46:00,
2013-05-14 19:49:00,82.8,54.6,29.69,SSW,193,4.4,8.8,38,0.00,,,0.00,9.00,VWS V14.01,2013-05-15 00:49:00,
2013-05-14 19:50:00,82.8,55.3,29.69,SSW,200,6.6,6.6,39,0.00,,,0.00,9.00,VWS V14.01,2013-05-15 00:50:00,
2013-05-14 19:51:00,82.7,55.2,29.69,South,190,3.3,4.4,39,0.00,,,0.00,7.00,VWS V14.01,2013-05-15 00:51:00,
2013-05-14 19:54:00,82.3,55.6,29.68,South,181,5.5,7.7,40,0.00,,,0.00,7.00,VWS V14.01,2013-05-15 00:54:00,
2013-05-14 19:55:00,82.2,54.8,29.68,South,183,2.2,5.5,39,0.00,,,0.00,7.00,VWS V14.01,2013-05-15 00:55:00,
2013-05-14 19:56:00,82.1,55.4,29.68,South,191,6.6,6.6,40,0.00,,,0.00,5.00,VWS V14.01,2013-05-15 00:56:00,
2013-05-14 19:57:00,82.1,55.4,29.68,SSW,202,2.2,6.6,40,0.00,,,0.00,5.00,VWS V14.01,2013-05-15 00:57:00,
2013-05-14 19:58:00,82.0,55.3,29.68,SSE,161,2.2,5.5,40,0.00,,,0.00,5.00,VWS V14.01,2013-05-15 00:58:00,
2013-05-14 19:59:00,81.9,55.2,29.68,SSW,193,6.6,6.6,40,0.00,,,0.00,0.00,VWS V14.01,2013-05-15 00:59:00,
2013-05-14 20:01:00,81.8,54.5,29.68,SSW,201,5.5,6.6,39,0.00,,,0.00,0.00,VWS V14.01,2013-05-15 01:01:00,
2013-05-14 20:02:00,81.8,55.1,29.68,SSW,208,4.4,7.7,40,0.00,,,0.00,0.00,VWS V14.01,2013-05-15 01:02:00,
2013-05-14 20:03:00,81.9,55.2,29.68,SW,216,7.7,11.0,40,0.00,,,0.00,0.00,VWS V14.01,2013-05-15 01:03:00,
2013-05-14 20:04:00,81.9,55.2,29.68,SSW,195,6.6,7.7,40,0.00,,,0.00,0.00,VWS V14.01,2013-05-15 01:04:00,
2013-05-14 20:06:00,81.9,55.2,29.68,SSW,197,4.4,9.9,40,0.00,,,0.00,0.00,VWS V14.01,2013-05-15 01:06:00,
2013-05-14 20:07:00,81.8,55.1,29.68,SW,218,3.3,7.7,40,0.00,,,0.00,0.00,VWS V14.01,2013-05-15 01:07:00,
2013-05-14 20:08:00,81.9,55.2,29.68,South,187,6.6,6.6,40,0.00,,,0.00,0.00,VWS V14.01,2013-05-15 01:08:00,
2013-05-14 20:09:00,81.9,55.2,29.68,SSW,194,5.5,6.6,40,0.00,,,0.00,0.00,VWS V14.01,2013-05-15 01:09:00,
2013-05-14 20:10:00,82.0,56.0,29.68,SSE,151,6.6,6.6,41,0.00,,,0.00,0.00,VWS V14.01,2013-05-15 01:10:00,
2013-05-14 20:11:00,82.0,56.0,29.68,SSW,196,9.9,9.9,41,0.00,,,0.00,0.00,VWS V14.01,2013-05-15 01:11:00,
2013-05-14 20:12:00,82.0,56.0,29.68,SW,221,7.7,8.8,41,0.00,,,0.00,0.00,VWS V14.01,2013-05-15 01:12:00,
2013-05-14 20:14:00,82.1,56.1,29.68,SW,234,6.6,8.8,41,0.00,,,0.00,0.00,VWS V14.01,2013-05-15 01:14:00,
2013-05-14 20:15:00,82.1,56.1,29.68,SSW,192,7.7,11.0,41,0.00,,,0.00,0.00,VWS V14.01,2013-05-15 01:15:00,
2013-05-14 20:17:00,82.1,56.1,29.68,SSW,194,6.6,9.9,41,0.00,,,0.00,0.00,VWS V14.01,2013-05-15 01:17:00,
2013-05-14 20:18:00,82.1,56.8,29.68,WSW,249,7.7,7.7,42,0.00,,,0.00,0.00,VWS V14.01,2013-05-15 01:18:00,
2013-05-14 20:19:00,82.0,56.7,29.68,South,188,11.0,11.0,42,0.00,,,0.00,0.00,VWS V14.01,2013-05-15 01:19:00,
2013-05-14 20:20:00,82.0,56.7,29.68,SSW,199,5.5,8.8,42,0.00,,,0.00,0.00,VWS V14.01,2013-05-15 01:20:00,
2013-05-14 20:21:00,82.0,56.7,29.68,South,177,9.9,9.9,42,0.00,,,0.00,0.00,VWS V14.01,2013-05-15 01:21:00,
2013-05-14 20:23:00,81.9,56.6,29.68,SSW,197,4.4,4.4,42,0.00,,,0.00,0.00,VWS V14.01,2013-05-15 01:23:00,
2013-05-14 20:24:00,81.9,56.6,29.69,SSW,206,4.4,6.6,42,0.00,,,0.00,0.00,VWS V14.01,2013-05-15 01:24:00,
2013-05-14 20:25:00,81.9,57.2,29.69,SSE,164,3.3,6.6,43,0.00,,,0.00,0.00,VWS V14.01,2013-05-15 01:25:00,
2013-05-14 20:26:00,81.9,57.2,29.69,SSW,208,4.4,6.6,43,0.00,,,0.00,0.00,VWS V14.01,2013-05-15 01:26:00,
2013-05-14 20:27:00,81.8,57.1,29.69,SSW,201,8.8,8.8,43,0.00,,,0.00,0.00,VWS V14.01,2013-05-15 01:27:00,
2013-05-14 20:28:00,81.8,57.1,29.69,South,189,8.8,13.2,43,0.00,,,0.00,0.00,VWS V14.01,2013-05-15 01:28:00,
2013-05-14 20:29:00,81.6,57.6,29.69,SSW,203,8.8,8.8,44,0.00,,,0.00,0.00,VWS V14.01,2013-05-15 01:29:00,
2013-05-14 20:31:00,81.6,57.6,29.69,SSW,193,6.6,8.8,44,0.00,,,0.00,0.00,VWS V14.01,2013-05-15 01:31:00,
2013-05-14 20:32:00,81.6,57.6,29.69,SW,226,11.0,11.0,44,0.00,,,0.00,0.00,VWS V14.01,2013-05-15 01:32:00,
2013-05-14 20:35:00,81.6,58.2,29.69,SW,233,8.8,8.8,45,0.00,,,0.00,0.00,VWS V14.01,2013-05-15 01:35:00,
2013-05-14 20:36:00,81.6,58.8,29.69,SSW,198,5.5,9.9,46,0.00,,,0.00,0.00,VWS V14.01,2013-05-15 01:36:00,
2013-05-14 20:37:00,81.6,58.8,29.69,SW,214,7.7,9.9,46,0.00,,,0.00,0.00,VWS V14.01,2013-05-15 01:37:00,
2013-05-14 20:38:00,81.6,58.8,29.69,SSW,196,7.7,7.7,46,0.00,,,0.00,0.00,VWS V14.01,2013-05-15 01:38:00,
2013-05-14 20:40:00,81.5,59.3,29.69,SW,223,6.6,8.8,47,0.00,,,0.00,0.00,VWS V14.01,2013-05-15 01:40:00,
2013-05-14 20:41:00,81.4,59.3,29.69,SSW,199,7.7,13.2,47,0.00,,,0.00,0.00,VWS V14.01,2013-05-15 01:41:00,
2013-05-14 20:42:00,81.4,59.8,29.69,South,181,8.8,8.8,48,0.00,,,0.00,0.00,VWS V14.01,2013-05-15 01:42:00,
2013-05-14 20:43:00,81.3,59.8,29.69,SSW,209,8.8,8.8,48,0.00,,,0.00,0.00,VWS V14.01,2013-05-15 01:43:00,
2013-05-14 20:45:00,81.1,60.2,29.69,WSW,254,6.6,9.9,49,0.00,,,0.00,0.00,VWS V14.01,2013-05-15 01:45:00,
2013-05-14 20:47:00,81.0,60.1,29.69,SW,221,8.8,11.0,49,0.00,,,0.00,0.00,VWS V14.01,2013-05-15 01:47:00,
2013-05-14 20:48:00,80.9,60.0,29.69,SW,226,8.8,11.0,49,0.00,,,0.00,0.00,VWS V14.01,2013-05-15 01:48:00,
2013-05-14 20:50:00,80.8,60.4,29.70,SSW,193,7.7,11.0,50,0.00,,,0.00,0.00,VWS V14.01,2013-05-15 01:50:00,
2013-05-14 20:52:00,80.7,60.3,29.70,SW,214,6.6,12.1,50,0.00,,,0.00,0.00,VWS V14.01,2013-05-15 01:52:00,
2013-05-14 20:53:00,80.6,60.8,29.70,SSW,212,5.5,16.5,51,0.00,,,0.00,0.00,VWS V14.01,2013-05-15 01:53:00,
2013-05-14 20:55:00,80.5,60.7,29.70,SW,215,12.1,12.1,51,0.00,,,0.00,0.00,VWS V14.01,2013-05-15 01:55:00,
2013-05-14 20:56:00,80.5,60.7,29.70,South,179,11.0,12.1,51,0.00,,,0.00,0.00,VWS V14.01,2013-05-15 01:56:00,
2013-05-14 20:57:00,80.4,61.2,29.70,South,171,13.2,13.2,52,0.00,,,0.00,0.00,VWS V14.01,2013-05-15 01:57:00,
2013-05-14 20:59:00,80.3,61.1,29.70,SW,216,8.8,14.3,52,0.00,,,0.00,0.00,VWS V14.01,2013-05-15 01:59:00,
2013-05-14 21:01:00,80.3,61.1,29.70,SW,231,11.0,13.2,52,0.00,,,0.00,0.00,VWS V14.01,2013-05-15 02:01:00,
2013-05-14 21:02:00,80.2,61.0,29.70,South,182,8.8,11.0,52,0.00,,,0.00,0.00,VWS V14.01,2013-05-15 02:02:00,
2013-05-14 21:03:00,80.2,61.0,29.70,SSE,160,8.8,11.0,52,0.00,,,0.00,0.00,VWS V14.01,2013-05-15 02:03:00,
2013-05-14 21:04:00,80.2,61.5,29.70,South,191,8.8,11.0,53,0.00,,,0.00,0.00,VWS V14.01,2013-05-15 02:04:00,
2013-05-14 21:07:00,80.0,61.3,29.70,SSW,205,7.7,11.0,53,0.00,,,0.00,0.00,VWS V14.01,2013-05-15 02:07:00,
2013-05-14 21:08:00,80.1,61.4,29.70,SW,218,8.8,13.2,53,0.00,,,0.00,0.00,VWS V14.01,2013-05-15 02:08:00,
2013-05-14 21:09:00,80.0,61.3,29.70,SSW,192,6.6,9.9,53,0.00,,,0.00,0.00,VWS V14.01,2013-05-15 02:09:00,
2013-05-14 21:12:00,80.0,61.3,29.69,South,183,13.2,17.6,53,0.00,,,0.00,0.00,VWS V14.01,2013-05-15 02:12:00,
2013-05-14 21:13:00,80.0,61.3,29.69,South,170,9.9,13.2,53,0.00,,,0.00,0.00,VWS V14.01,2013-05-15 02:13:00,
2013-05-14 21:14:00,80.1,61.4,29.70,SW,215,8.8,14.3,53,0.00,,,0.00,0.00,VWS V14.01,2013-05-15 02:14:00,
2013-05-14 21:15:00,80.1,61.4,29.69,SW,233,11.0,11.0,53,0.00,,,0.00,0.00,VWS V14.01,2013-05-15 02:15:00,
2013-05-14 21:17:00,80.1,61.4,29.69,South,173,12.1,15.4,53,0.00,,,0.00,0.00,VWS V14.01,2013-05-15 02:17:00,
2013-05-14 21:18:00,80.1,61.4,29.70,SSW,195,7.7,12.1,53,0.00,,,0.00,0.00,VWS V14.01,2013-05-15 02:18:00,
2013-05-14 21:19:00,80.0,61.9,29.70,SSE,162,9.9,9.9,54,0.00,,,0.00,0.00,VWS V14.01,2013-05-15 02:19:00,
2013-05-14 21:20:00,80.0,61.9,29.70,SSW,202,7.7,11.0,54,0.00,,,0.00,0.00,VWS V14.01,2013-05-15 02:20:00,
2013-05-14 21:22:00,79.8,61.7,29.70,WSW,245,6.6,12.1,54,0.00,,,0.00,0.00,VWS V14.01,2013-05-15 02:22:00,
2013-05-14 21:23:00,79.8,61.2,29.70,SSW,212,7.7,12.1,53,0.00,,,0.00,0.00,VWS V14.01,2013-05-15 02:23:00,
2013-05-14 21:25:00,79.8,61.2,29.70,SW,228,7.7,9.9,53,0.00,,,0.00,0.00,VWS V14.01,2013-05-15 02:25:00,
2013-05-14 21:26:00,79.7,61.6,29.70,SSW,201,8.8,8.8,54,0.00,,,0.00,0.00,VWS V14.01,2013-05-15 02:26:00,
2013-05-14 21:29:00,79.5,61.4,29.70,South,183,11.0,12.1,54,0.00,,,0.00,0.00,VWS V14.01,2013-05-15 02:29:00,
2013-05-14 21:30:00,79.5,61.4,29.70,SW,225,15.4,15.4,54,0.00,,,0.00,0.00,VWS V14.01,2013-05-15 02:30:00,
2013-05-14 21:31:00,79.5,61.4,29.70,SSW,201,11.0,11.0,54,0.00,,,0.00,0.00,VWS V14.01,2013-05-15 02:31:00,
2013-05-14 21:34:00,79.2,61.1,29.70,SSW,213,6.6,8.8,54,0.00,,,0.00,0.00,VWS V14.01,2013-05-15 02:34:00,
2013-05-14 21:35:00,79.2,61.1,29.71,SW,226,12.1,12.1,54,0.00,,,0.00,0.00,VWS V14.01,2013-05-15 02:35:00,
2013-05-14 21:36:00,79.1,61.0,29.71,WSW,237,9.9,9.9,54,0.00,,,0.00,0.00,VWS V14.01,2013-05-15 02:36:00,
2013-05-14 21:38:00,79.0,61.5,29.70,South,189,8.8,12.1,55,0.00,,,0.00,0.00,VWS V14.01,2013-05-15 02:38:00,
2013-05-14 21:39:00,79.0,61.5,29.70,SSW,196,7.7,9.9,55,0.00,,,0.00,0.00,VWS V14.01,2013-05-15 02:39:00,
2013-05-14 21:40:00,79.0,61.5,29.70,SSW,208,13.2,16.5,55,0.00,,,0.00,0.00,VWS V14.01,2013-05-15 02:40:00,
2013-05-14 21:41:00,79.0,61.5,29.70,South,185,12.1,14.3,55,0.00,,,0.00,0.00,VWS V14.01,2013-05-15 02:41:00,
2013-05-14 21:42:00,78.9,61.4,29.70,SSW,199,8.8,13.2,55,0.00,,,0.00,0.00,VWS V14.01,2013-05-15 02:42:00,
2013-05-14 21:44:00,78.8,61.3,29.70,SW,217,5.5,16.5,55,0.00,,,0.00,0.00,VWS V14.01,2013-05-15 02:44:00,
2013-05-14 21:45:00,78.8,61.3,29.70,SSW,202,5.5,16.5,55,0.00,,,0.00,0.00,VWS V14.01,2013-05-15 02:45:00,
2013-05-14 21:47:00,78.7,61.2,29.71,South,173,12.1,16.5,55,0.00,,,0.00,0.00,VWS V14.01,2013-05-15 02:47:00,
2013-05-14 21:48:00,78.6,61.1,29.70,SW,223,12.1,12.1,55,0.00,,,0.00,0.00,VWS V14.01,2013-05-15 02:48:00,
2013-05-14 21:50:00,78.6,61.1,29.71,West,264,7.7,11.0,55,0.00,,,0.00,0.00,VWS V14.01,2013-05-15 02:50:00,
2013-05-14 21:51:00,78.6,61.1,29.71,SW,228,7.7,14.3,55,0.00,,,0.00,0.00,VWS V14.01,2013-05-15 02:51:00,
2013-05-14 21:52:00,78.5,61.0,29.71,SSW,199,11.0,12.1,55,0.00,,,0.00,0.00,VWS V14.01,2013-05-15 02:52:00,
2013-05-14 21:53:00,78.5,61.0,29.71,SW,216,11.0,13.2,55,0.00,,,0.00,0.00,VWS V14.01,2013-05-15 02:53:00,
2013-05-14 21:55:00,78.5,61.0,29.71,SW,217,6.6,14.3,55,0.00,,,0.00,0.00,VWS V14.01,2013-05-15 02:55:00,
2013-05-14 21:56:00,78.4,60.9,29.71,SW,223,7.7,9.9,55,0.00,,,0.00,0.00,VWS V14.01,2013-05-15 02:56:00,
2013-05-14 21:58:00,78.4,60.9,29.71,South,185,12.1,12.1,55,0.00,,,0.00,0.00,VWS V14.01,2013-05-15 02:58:00,
2013-05-14 21:59:00,78.4,60.9,29.71,SSW,213,11.0,15.4,55,0.00,,,0.00,0.00,VWS V14.01,2013-05-15 02:59:00,
2013-05-14 22:01:00,78.4,60.9,29.71,SW,220,13.2,13.2,55,0.00,,,0.00,0.00,VWS V14.01,2013-05-15 03:01:00,
2013-05-14 22:02:00,78.4,60.9,29.71,South,172,6.6,7.7,55,0.00,,,0.00,0.00,VWS V14.01,2013-05-15 03:02:00,
2013-05-14 22:04:00,78.3,60.8,29.70,SSW,201,6.6,7.7,55,0.00,,,0.00,0.00,VWS V14.01,2013-05-15 03:04:00,
2013-05-14 22:06:00,78.2,60.7,29.71,South,191,6.6,8.8,55,0.00,,,0.00,0.00,VWS V14.01,2013-05-15 03:06:00,
2013-05-14 22:07:00,78.1,60.6,29.71,SSW,211,7.7,8.8,55,0.00,,,0.00,0.00,VWS V14.01,2013-05-15 03:07:00,
2013-05-14 22:10:00,78.0,60.5,29.71,SSW,203,7.7,11.0,55,0.00,,,0.00,0.00,VWS V14.01,2013-05-15 03:10:00,
2013-05-14 22:12:00,78.0,60.5,29.71,SSW,206,6.6,11.0,55,0.00,,,0.00,0.00,VWS V14.01,2013-05-15 03:12:00,
2013-05-14 22:14:00,77.8,60.4,29.71,South,181,12.1,15.4,55,0.00,,,0.00,0.00,VWS V14.01,2013-05-15 03:14:00,
2013-05-14 22:16:00,77.8,60.4,29.71,SSW,192,6.6,11.0,55,0.00,,,0.00,0.00,VWS V14.01,2013-05-15 03:16:00,
2013-05-14 22:17:00,77.8,60.9,29.71,SW,216,9.9,9.9,56,0.00,,,0.00,0.00,VWS V14.01,2013-05-15 03:17:00,
2013-05-14 22:19:00,77.7,60.8,29.71,SW,217,12.1,15.4,56,0.00,,,0.00,0.00,VWS V14.01,2013-05-15 03:19:00,
2013-05-14 22:20:00,77.7,60.8,29.71,WSW,242,12.1,13.2,56,0.00,,,0.00,0.00,VWS V14.01,2013-05-15 03:20:00,
2013-05-14 22:22:00,77.7,60.8,29.71,SSW,197,9.9,9.9,56,0.00,,,0.00,0.00,VWS V14.01,2013-05-15 03:22:00,
2013-05-14 22:23:00,77.6,60.7,29.71,WSW,237,7.7,13.2,56,0.00,,,0.00,0.00,VWS V14.01,2013-05-15 03:23:00,
2013-05-14 22:25:00,77.6,60.7,29.70,SSW,208,7.7,12.1,56,0.00,,,0.00,0.00,VWS V14.01,2013-05-15 03:25:00,
2013-05-14 22:27:00,77.5,60.1,29.71,SW,230,11.0,13.2,55,0.00,,,0.00,0.00,VWS V14.01,2013-05-15 03:27:00,
2013-05-14 22:28:00,77.5,60.6,29.70,South,170,9.9,9.9,56,0.00,,,0.00,0.00,VWS V14.01,2013-05-15 03:28:00,
2013-05-14 22:31:00,77.4,60.5,29.70,SSW,208,9.9,12.1,56,0.00,,,0.00,0.00,VWS V14.01,2013-05-15 03:31:00,
2013-05-14 22:32:00,77.3,60.4,29.70,South,191,14.3,14.3,56,0.00,,,0.00,0.00,VWS V14.01,2013-05-15 03:32:00,
2013-05-14 22:33:00,77.3,60.4,29.70,SSW,210,11.0,14.3,56,0.00,,,0.00,0.00,VWS V14.01,2013-05-15 03:33:00,
2013-05-14 22:34:00,77.3,60.4,29.70,South,178,7.7,14.3,56,0.00,,,0.00,0.00,VWS V14.01,2013-05-15 03:34:00,
2013-05-14 22:36:00,77.2,60.3,29.70,SSW,212,8.8,14.3,56,0.00,,,0.00,0.00,VWS V14.01,2013-05-15 03:36:00,
2013-05-14 22:37:00,77.1,60.2,29.70,SSE,153,7.7,11.0,56,0.00,,,0.00,0.00,VWS V14.01,2013-05-15 03:37:00,
2013-05-14 22:38:00,77.1,60.2,29.71,SSW,201,13.2,13.2,56,0.00,,,0.00,0.00,VWS V14.01,2013-05-15 03:38:00,
2013-05-14 22:39:00,77.1,60.2,29.71,SSW,208,7.7,13.2,56,0.00,,,0.00,0.00,VWS V14.01,2013-05-15 03:39:00,
2013-05-14 22:42:00,77.0,60.1,29.71,SSE,162,7.7,7.7,56,0.00,,,0.00,0.00,VWS V14.01,2013-05-15 03:42:00,
2013-05-14 22:44:00,76.9,60.0,29.71,SW,224,8.8,12.1,56,0.00,,,0.00,0.00,VWS V14.01,2013-05-15 03:44:00,
2013-05-14 22:45:00,76.9,60.0,29.71,SSW,212,11.0,13.2,56,0.00,,,0.00,0.00,VWS V14.01,2013-05-15 03:45:00,
2013-05-14 22:47:00,76.8,59.9,29.71,SSW,209,6.6,6.6,56,0.00,,,0.00,0.00,VWS V14.01,2013-05-15 03:47:00,
2013-05-14 22:48:00,76.8,59.9,29.71,South,183,8.8,9.9,56,0.00,,,0.00,0.00,VWS V14.01,2013-05-15 03:48:00,
2013-05-14 22:49:00,76.7,59.8,29.71,South,172,5.5,11.0,56,0.00,,,0.00,0.00,VWS V14.01,2013-05-15 03:49:00,
2013-05-14 22:51:00,76.7,59.8,29.71,SW,222,5.5,6.6,56,0.00,,,0.00,0.00,VWS V14.01,2013-05-15 03:51:00,
2013-05-14 22:52:00,76.6,60.2,29.72,SW,233,7.7,7.7,57,0.00,,,0.00,0.00,VWS V14.01,2013-05-15 03:52:00,
2013-05-14 22:54:00,76.5,60.2,29.72,SW,214,4.4,5.5,57,0.00,,,0.00,0.00,VWS V14.01,2013-05-15 03:54:00,
2013-05-14 22:55:00,76.5,60.2,29.72,WSW,239,5.5,5.5,57,0.00,,,0.00,0.00,VWS V14.01,2013-05-15 03:55:00,
2013-05-14 22:57:00,76.3,60.0,29.72,SW,235,3.3,7.7,57,0.00,,,0.00,0.00,VWS V14.01,2013-05-15 03:57:00,
2013-05-14 22:58:00,76.3,60.0,29.72,SW,231,3.3,5.5,57,0.00,,,0.00,0.00,VWS V14.01,2013-05-15 03:58:00,
2013-05-14 23:00:00,76.2,59.9,29.73,SW,234,4.4,7.7,57,0.00,,,0.00,0.00,VWS V14.01,2013-05-15 04:00:00,
2013-05-14 23:01:00,76.2,59.9,29.73,SW,214,1.1,5.5,57,0.00,,,0.00,0.00,VWS V14.01,2013-05-15 04:01:00,
2013-05-14 23:02:00,76.2,59.9,29.73,SW,214,2.2,5.5,57,0.00,,,0.00,0.00,VWS V14.01,2013-05-15 04:02:00,
2013-05-14 23:06:00,76.0,59.7,29.73,WSW,244,5.5,7.7,57,0.00,,,0.00,0.00,VWS V14.01,2013-05-15 04:06:00,
2013-05-14 23:07:00,76.0,59.7,29.73,SW,225,7.7,8.8,57,0.00,,,0.00,0.00,VWS V14.01,2013-05-15 04:07:00,
2013-05-14 23:08:00,76.0,59.7,29.73,SW,218,3.3,4.4,57,0.00,,,0.00,0.00,VWS V14.01,2013-05-15 04:08:00,
2013-05-14 23:11:00,75.9,60.1,29.73,SW,235,3.3,4.4,58,0.00,,,0.00,0.00,VWS V14.01,2013-05-15 04:11:00,
2013-05-14 23:12:00,75.8,60.0,29.74,WSW,240,2.2,4.4,58,0.00,,,0.00,0.00,VWS V14.01,2013-05-15 04:12:00,
2013-05-14 23:14:00,75.7,59.9,29.73,South,191,3.3,4.4,58,0.00,,,0.00,0.00,VWS V14.01,2013-05-15 04:14:00,
2013-05-14 23:16:00,75.6,59.8,29.73,SSW,200,4.4,4.4,58,0.00,,,0.00,0.00,VWS V14.01,2013-05-15 04:16:00,
2013-05-14 23:17:00,75.5,59.7,29.73,SSW,201,3.3,5.5,58,0.00,,,0.00,0.00,VWS V14.01,2013-05-15 04:17:00,
2013-05-14 23:18:00,75.5,60.2,29.73,South,191,3.3,5.5,59,0.00,,,0.00,0.00,VWS V14.01,2013-05-15 04:18:00,
2013-05-14 23:19:00,75.4,59.6,29.73,SSW,197,2.2,5.5,58,0.00,,,0.00,0.00,VWS V14.01,2013-05-15 04:19:00,
2013-05-14 23:23:00,75.1,59.8,29.73,SSW,193,5.5,5.5,59,0.00,,,0.00,0.00,VWS V14.01,2013-05-15 04:23:00,
2013-05-14 23:24:00,75.0,59.7,29.72,SSW,197,2.2,4.4,59,0.00,,,0.00,0.00,VWS V14.01,2013-05-15 04:24:00,
2013-05-14 23:28:00,74.6,59.8,29.73,SSW,197,2.2,3.3,60,0.00,,,0.00,0.00,VWS V14.01,2013-05-15 04:28:00,
2013-05-14 23:29:00,74.5,59.7,29.73,SSW,201,2.2,2.2,60,0.00,,,0.00,0.00,VWS V14.01,2013-05-15 04:29:00,
2013-05-14 23:30:00,74.3,59.5,29.73,SSW,209,0.0,5.5,60,0.00,,,0.00,0.00,VWS V14.01,2013-05-15 04:30:00,
2013-05-14 23:31:00,74.2,59.9,29.73,SSW,199,0.0,2.2,61,0.00,,,0.00,0.00,VWS V14.01,2013-05-15 04:31:00,
2013-05-14 23:32:00,74.1,59.8,29.73,SSW,199,1.1,2.2,61,0.00,,,0.00,0.00,VWS V14.01,2013-05-15 04:32:00,
2013-05-14 23:34:00,73.8,59.5,29.73,SSW,207,3.3,5.5,61,0.00,,,0.00,0.00,VWS V14.01,2013-05-15 04:34:00,
2013-05-14 23:35:00,73.5,59.7,29.73,SSW,208,3.3,3.3,62,0.00,,,0.00,0.00,VWS V14.01,2013-05-15 04:35:00,
2013-05-14 23:37:00,73.3,59.5,29.73,South,189,3.3,4.4,62,0.00,,,0.00,0.00,VWS V14.01,2013-05-15 04:37:00,
2013-05-14 23:39:00,73.1,59.3,29.73,SSW,197,4.4,4.4,62,0.00,,,0.00,0.00,VWS V14.01,2013-05-15 04:39:00,
2013-05-14 23:41:00,73.1,59.3,29.73,SSW,199,4.4,4.4,62,0.00,,,0.00,0.00,VWS V14.01,2013-05-15 04:41:00,
2013-05-14 23:42:00,73.0,59.2,29.72,SSW,195,2.2,5.5,62,0.00,,,0.00,0.00,VWS V14.01,2013-05-15 04:42:00,
2013-05-14 23:43:00,73.0,59.7,29.72,SSW,195,4.4,5.5,63,0.00,,,0.00,0.00,VWS V14.01,2013-05-15 04:43:00,
2013-05-14 23:46:00,73.0,59.7,29.72,SSW,192,6.6,6.6,63,0.00,,,0.00,0.00,VWS V14.01,2013-05-15 04:46:00,
2013-05-14 23:47:00,73.0,59.7,29.72,SSW,194,3.3,4.4,63,0.00,,,0.00,0.00,VWS V14.01,2013-05-15 04:47:00,
2013-05-14 23:48:00,73.0,59.2,29.72,SW,220,3.3,6.6,62,0.00,,,0.00,0.00,VWS V14.01,2013-05-15 04:48:00,
2013-05-14 23:52:00,73.1,59.3,29.72,South,176,3.3,5.5,62,0.00,,,0.00,0.00,VWS V14.01,2013-05-15 04:52:00,
2013-05-14 23:53:00,73.1,59.3,29.72,SSW,210,4.4,4.4,62,0.00,,,0.00,0.00,VWS V14.01,2013-05-15 04:53:00,
2013-05-14 23:55:00,73.1,59.3,29.72,South,185,5.5,5.5,62,0.00,,,0.00,0.00,VWS V14.01,2013-05-15 04:55:00,
2013-05-14 23:57:00,73.1,59.3,29.71,South,182,6.6,6.6,62,0.00,,,0.00,0.00,VWS V14.01,2013-05-15 04:57:00,
2013-05-14 23:58:00,73.1,59.3,29.71,South,170,7.7,8.8,62,0.00,,,0.00,0.00,VWS V14.01,2013-05-15 04:58:00,
2013-05-14 23:59:00,73.1,59.3,29.71,SSW,193,1.1,4.4,62,0.00,,,0.00,0.00,VWS V14.01,2013-05-15 04:59:00,